Wetterdaten: Samstag, 22.09.2018
Datum Zeit Temp. Aussen Temp. o. S. +5cm Feuchte Auss Luftdruck Regen Sonnenschein Regendauer Solar Windben Empfang
22.09.2018 00:00 13,4 C 12,8 C 12,8 C 73 % 1013,4 hPa 0,0 l/m 0 min 0 min 0 W/m 16,1 km/h (3 Bft) 95,74 %
22.09.2018 00:02 13,4 C 12,8 C 12,8 C 73 % 1013,4 hPa 0,0 l/m 0 min 0 min 0 W/m 16,1 km/h (3 Bft) 97,14 %
22.09.2018 00:04 13,4 C 12,8 C 12,8 C 73 % 1013,4 hPa 0,0 l/m 0 min 0 min 0 W/m 19,3 km/h (3 Bft) 97,87 %
22.09.2018 00:08 13,4 C 12,8 C 12,8 C 73 % 1013,5 hPa 0,0 l/m 0 min 0 min 0 W/m 16,1 km/h (3 Bft) 96,77 %
22.09.2018 00:10 13,4 C 12,8 C 12,8 C 73 % 1013,6 hPa 0,0 l/m 0 min 0 min 0 W/m 22,5 km/h (4 Bft) 95,74 %
22.09.2018 00:12 13,4 C 12,8 C 12,8 C 73 % 1013,6 hPa 0,0 l/m 0 min 0 min 0 W/m 19,3 km/h (3 Bft) 95,74 %
22.09.2018 00:14 13,4 C 12,8 C 12,8 C 73 % 1013,7 hPa 0,0 l/m 0 min 0 min 0 W/m 16,1 km/h (3 Bft) 97,87 %
22.09.2018 00:16 13,3 C 12,8 C 12,8 C 73 % 1013,6 hPa 0,0 l/m 0 min 0 min 0 W/m 12,9 km/h (3 Bft) 94,00 %
22.09.2018 00:18 13,3 C 12,8 C 12,8 C 74 % 1013,6 hPa 0,0 l/m 0 min 0 min 0 W/m 25,7 km/h (4 Bft) 97,83 %
22.09.2018 00:20 13,3 C 12,8 C 12,8 C 74 % 1013,7 hPa 0,0 l/m 0 min 0 min 0 W/m 19,3 km/h (3 Bft) 100,00 %
22.09.2018 00:22 13,3 C 12,8 C 12,8 C 74 % 1013,7 hPa 0,0 l/m 0 min 0 min 0 W/m 9,7 km/h (2 Bft) 100,00 %
22.09.2018 00:24 13,3 C 12,8 C 12,8 C 74 % 1013,7 hPa 0,0 l/m 0 min 0 min 0 W/m 25,7 km/h (4 Bft) 97,87 %
22.09.2018 00:26 13,3 C 12,8 C 12,8 C 74 % 1013,8 hPa 0,0 l/m 0 min 0 min 0 W/m 12,9 km/h (3 Bft) 100,00 %
22.09.2018 00:28 13,3 C 12,8 C 12,8 C 74 % 1013,9 hPa 0,0 l/m 0 min 0 min 0 W/m 9,7 km/h (2 Bft) 100,00 %
22.09.2018 00:30 13,3 C 12,2 C 12,2 C 74 % 1013,8 hPa 0,0 l/m 0 min 0 min 0 W/m 22,5 km/h (4 Bft) 100,00 %
22.09.2018 00:32 13,3 C 12,8 C 12,2 C 74 % 1013,9 hPa 0,0 l/m 0 min 0 min 0 W/m 12,9 km/h (3 Bft) 100,00 %
22.09.2018 00:34 13,3 C 12,2 C 12,2 C 74 % 1014,0 hPa 0,0 l/m 0 min 0 min 0 W/m 16,1 km/h (3 Bft) 100,00 %
22.09.2018 00:36 13,3 C 12,2 C 12,2 C 74 % 1014,0 hPa 0,0 l/m 0 min 0 min 0 W/m 9,7 km/h (2 Bft) 100,00 %
22.09.2018 00:38 13,2 C 12,2 C 12,2 C 74 % 1014,0 hPa 0,0 l/m 0 min 0 min 0 W/m 22,5 km/h (4 Bft) 100,00 %
22.09.2018 00:40 13,2 C 12,2 C 12,2 C 74 % 1014,1 hPa 0,0 l/m 0 min 0 min 0 W/m 16,1 km/h (3 Bft) 100,00 %
22.09.2018 00:42 13,2 C 12,2 C 12,2 C 74 % 1014,0 hPa 0,0 l/m 0 min 0 min 0 W/m 22,5 km/h (4 Bft) 100,00 %
22.09.2018 00:44 13,2 C 12,2 C 12,2 C 74 % 1014,1 hPa 0,0 l/m 0 min 0 min 0 W/m 16,1 km/h (3 Bft) 100,00 %
22.09.2018 00:46 13,2 C 12,2 C 12,2 C 75 % 1014,1 hPa 0,0 l/m 0 min 0 min 0 W/m 6,4 km/h (2 Bft) 100,00 %
22.09.2018 00:48 13,2 C 12,2 C 12,2 C 74 % 1014,1 hPa 0,0 l/m 0 min 0 min 0 W/m 22,5 km/h (4 Bft) 100,00 %
22.09.2018 00:50 13,2 C 12,2 C 12,2 C 75 % 1014,2 hPa 0,0 l/m 0 min 0 min 0 W/m 12,9 km/h (3 Bft) 100,00 %
22.09.2018 00:52 13,2 C 12,2 C 12,2 C 75 % 1014,2 hPa 0,0 l/m 0 min 0 min 0 W/m 16,1 km/h (3 Bft) 100,00 %
22.09.2018 00:54 13,2 C 12,8 C 12,2 C 75 % 1014,2 hPa 0,0 l/m 0 min 0 min 0 W/m 19,3 km/h (3 Bft) 100,00 %
22.09.2018 00:56 13,2 C 12,8 C 12,2 C 75 % 1014,1 hPa 0,0 l/m 0 min 0 min 0 W/m 6,4 km/h (2 Bft) 100,00 %
22.09.2018 00:58 13,2 C 12,8 C 12,2 C 75 % 1014,1 hPa 0,0 l/m 0 min 0 min 0 W/m 12,9 km/h (3 Bft) 100,00 %
22.09.2018 01:00 13,2 C 12,8 C 12,8 C 75 % 1014,4 hPa 0,0 l/m 0 min 0 min 0 W/m 25,7 km/h (4 Bft) 100,00 %
22.09.2018 01:02 13,2 C 12,8 C 12,8 C 75 % 1014,3 hPa 0,0 l/m 0 min 0 min 0 W/m 22,5 km/h (4 Bft) 100,00 %
22.09.2018 01:04 13,2 C 12,8 C 12,8 C 75 % 1014,3 hPa 0,0 l/m 0 min 0 min 0 W/m 9,7 km/h (2 Bft) 100,00 %
22.09.2018 01:06 13,2 C 12,8 C 12,8 C 75 % 1014,3 hPa 0,0 l/m 0 min 0 min 0 W/m 16,1 km/h (3 Bft) 98,00 %
22.09.2018 01:08 13,2 C 12,8 C 12,8 C 75 % 1014,3 hPa 0,0 l/m 0 min 0 min 0 W/m 16,1 km/h (3 Bft) 100,00 %
22.09.2018 01:10 13,3 C 12,2 C 12,2 C 75 % 1014,2 hPa 0,0 l/m 0 min 2 min 0 W/m 16,1 km/h (3 Bft) 97,87 %
22.09.2018 01:12 13,3 C 12,2 C 12,2 C 76 % 1014,2 hPa 0,0 l/m 0 min 2 min 0 W/m 12,9 km/h (3 Bft) 100,00 %
22.09.2018 01:14 13,3 C 12,2 C 12,2 C 76 % 1014,2 hPa 0,0 l/m 0 min 2 min 0 W/m 12,9 km/h (3 Bft) 100,00 %
22.09.2018 01:16 13,2 C 12,2 C 12,2 C 77 % 1014,3 hPa 0,0 l/m 0 min 2 min 0 W/m 9,7 km/h (2 Bft) 100,00 %
22.09.2018 01:18 13,3 C 12,2 C 12,2 C 77 % 1014,4 hPa 0,0 l/m 0 min 2 min 0 W/m 19,3 km/h (3 Bft) 100,00 %
22.09.2018 01:20 13,2 C 12,2 C 12,2 C 76 % 1014,4 hPa 0,0 l/m 0 min 2 min 0 W/m 9,7 km/h (2 Bft) 100,00 %
22.09.2018 01:22 13,2 C 12,8 C 12,2 C 77 % 1014,5 hPa 0,0 l/m 0 min 2 min 0 W/m 12,9 km/h (3 Bft) 97,87 %
22.09.2018 01:24 13,2 C 12,2 C 12,2 C 77 % 1014,6 hPa 0,0 l/m 0 min 2 min 0 W/m 16,1 km/h (3 Bft) 97,87 %
22.09.2018 01:26 13,3 C 12,2 C 12,2 C 77 % 1014,8 hPa 0,0 l/m 0 min 0 min 0 W/m 9,7 km/h (2 Bft) 97,83 %
22.09.2018 01:28 13,3 C 11,1 C 11,7 C 78 % 1014,7 hPa 0,0 l/m 0 min 2 min 0 W/m 9,7 km/h (2 Bft) 93,62 %
22.09.2018 01:30 13,3 C 10,6 C 11,7 C 78 % 1014,7 hPa 0,0 l/m 0 min 2 min 0 W/m 16,1 km/h (3 Bft) 95,74 %
22.09.2018 01:32 13,2 C 10,6 C 11,7 C 78 % 1014,8 hPa 0,0 l/m 0 min 2 min 0 W/m 16,1 km/h (3 Bft) 97,87 %
22.09.2018 01:34 13,2 C 10,6 C 11,7 C 79 % 1014,7 hPa 0,0 l/m 0 min 2 min 0 W/m 9,7 km/h (2 Bft) 95,74 %
22.09.2018 01:36 13,2 C 10,6 C 11,7 C 79 % 1014,6 hPa 0,0 l/m 0 min 2 min 0 W/m 9,7 km/h (2 Bft) 95,65 %
22.09.2018 01:38 13,2 C 11,1 C 11,7 C 79 % 1014,7 hPa 0,0 l/m 0 min 2 min 0 W/m 25,7 km/h (4 Bft) 97,87 %
22.09.2018 01:40 13,1 C 11,1 C 11,7 C 79 % 1014,8 hPa 0,0 l/m 0 min 2 min 0 W/m 9,7 km/h (2 Bft) 97,87 %
22.09.2018 01:42 13,1 C 11,1 C 11,7 C 79 % 1014,7 hPa 0,0 l/m 0 min 2 min 0 W/m 12,9 km/h (3 Bft) 97,87 %
22.09.2018 01:44 13,1 C 11,1 C 11,7 C 79 % 1014,7 hPa 0,0 l/m 0 min 2 min 0 W/m 19,3 km/h (3 Bft) 97,87 %
22.09.2018 01:46 13,0 C 11,7 C 12,2 C 79 % 1014,7 hPa 0,0 l/m 0 min 2 min 0 W/m 16,1 km/h (3 Bft) 95,12 %
22.09.2018 01:48 12,9 C 11,7 C 11,7 C 79 % 1014,7 hPa 0,0 l/m 0 min 2 min 0 W/m 6,4 km/h (2 Bft) 94,34 %
22.09.2018 01:50 12,9 C 11,7 C 12,2 C 79 % 1014,7 hPa 0,0 l/m 0 min 0 min 0 W/m 12,9 km/h (3 Bft) 97,56 %
22.09.2018 01:52 12,9 C 11,7 C 11,7 C 79 % 1014,7 hPa 0,0 l/m 0 min 0 min 0 W/m 9,7 km/h (2 Bft) 97,83 %
22.09.2018 01:54 12,9 C 11,7 C 11,7 C 79 % 1014,7 hPa 0,0 l/m 0 min 0 min 0 W/m 32,2 km/h (5 Bft) 97,87 %
22.09.2018 01:56 12,8 C 11,7 C 11,7 C 79 % 1014,8 hPa 0,0 l/m 0 min 0 min 0 W/m 9,7 km/h (2 Bft) 93,62 %
22.09.2018 01:58 12,8 C 11,7 C 11,7 C 79 % 1014,8 hPa 0,0 l/m 0 min 0 min 0 W/m 6,4 km/h (2 Bft) 97,87 %
22.09.2018 02:00 12,8 C 11,7 C 11,7 C 80 % 1014,8 hPa 0,0 l/m 0 min 0 min 0 W/m 9,7 km/h (2 Bft) 96,23 %
22.09.2018 02:02 12,7 C 12,2 C 12,2 C 79 % 1014,9 hPa 0,0 l/m 0 min 0 min 0 W/m 16,1 km/h (3 Bft) 95,35 %
22.09.2018 02:04 12,7 C 12,2 C 12,2 C 79 % 1014,8 hPa 0,0 l/m 0 min 0 min 0 W/m 12,9 km/h (3 Bft) 95,74 %
22.09.2018 02:06 12,7 C 12,2 C 12,2 C 79 % 1014,8 hPa 0,0 l/m 0 min 0 min 0 W/m 12,9 km/h (3 Bft) 95,74 %
22.09.2018 02:08 12,7 C 12,2 C 12,2 C 80 % 1015,0 hPa 0,0 l/m 0 min 0 min 0 W/m 12,9 km/h (3 Bft) 97,87 %
22.09.2018 02:10 12,7 C 12,2 C 12,2 C 80 % 1015,1 hPa 0,0 l/m 0 min 0 min 0 W/m 19,3 km/h (3 Bft) 95,74 %
22.09.2018 02:12 12,7 C 12,2 C 12,2 C 79 % 1015,0 hPa 0,0 l/m 0 min 2 min 0 W/m 12,9 km/h (3 Bft) 95,74 %
22.09.2018 02:14 12,7 C 12,2 C 12,2 C 80 % 1015,0 hPa 0,0 l/m 0 min 0 min 0 W/m 25,7 km/h (4 Bft) 97,83 %
22.09.2018 02:16 12,8 C 12,2 C 12,2 C 80 % 1015,1 hPa 0,0 l/m 0 min 0 min 0 W/m 22,5 km/h (4 Bft) 95,74 %
22.09.2018 02:18 12,8 C 12,2 C 12,2 C 80 % 1015,2 hPa 0,0 l/m 0 min 0 min 0 W/m 12,9 km/h (3 Bft) 97,87 %
22.09.2018 02:20 12,7 C 12,2 C 12,2 C 80 % 1015,2 hPa 0,0 l/m 0 min 0 min 0 W/m 9,7 km/h (2 Bft) 95,74 %
22.09.2018 02:22 12,8 C 12,2 C 11,7 C 80 % 1015,2 hPa 0,0 l/m 0 min 0 min 0 W/m 12,9 km/h (3 Bft) 97,87 %
22.09.2018 02:24 12,7 C 12,2 C 11,7 C 80 % 1015,2 hPa 0,0 l/m 0 min 0 min 0 W/m 9,7 km/h (2 Bft) 95,74 %
22.09.2018 02:26 12,7 C 11,7 C 11,7 C 80 % 1015,2 hPa 0,0 l/m 0 min 0 min 0 W/m 6,4 km/h (2 Bft) 97,83 %
22.09.2018 02:28 12,7 C 11,7 C 11,7 C 80 % 1015,3 hPa 0,0 l/m 0 min 0 min 0 W/m 16,1 km/h (3 Bft) 95,74 %
22.09.2018 02:30 12,7 C 11,7 C 11,7 C 80 % 1015,3 hPa 0,0 l/m 0 min 0 min 0 W/m 9,7 km/h (2 Bft) 97,87 %
22.09.2018 02:32 12,7 C 11,7 C 11,7 C 80 % 1015,4 hPa 0,0 l/m 0 min 0 min 0 W/m 16,1 km/h (3 Bft) 95,74 %
22.09.2018 02:34 12,7 C 11,7 C 11,7 C 80 % 1015,4 hPa 0,0 l/m 0 min 0 min 0 W/m 9,7 km/h (2 Bft) 95,74 %
22.09.2018 02:36 12,7 C 11,7 C 11,7 C 80 % 1015,3 hPa 0,0 l/m 0 min 0 min 0 W/m 19,3 km/h (3 Bft) 97,83 %
22.09.2018 02:38 12,6 C 11,7 C 11,7 C 80 % 1015,4 hPa 0,0 l/m 0 min 0 min 0 W/m 16,1 km/h (3 Bft) 97,87 %
22.09.2018 02:40 12,6 C 11,7 C 11,7 C 80 % 1015,5 hPa 0,0 l/m 0 min 0 min 0 W/m 6,4 km/h (2 Bft) 95,74 %
22.09.2018 02:42 12,6 C 11,7 C 11,7 C 81 % 1015,5 hPa 0,0 l/m 0 min 0 min 0 W/m 12,9 km/h (3 Bft) 97,87 %
22.09.2018 02:44 12,6 C 11,7 C 11,7 C 81 % 1015,5 hPa 0,0 l/m 0 min 0 min 0 W/m 16,1 km/h (3 Bft) 100,00 %
22.09.2018 02:46 12,6 C 11,7 C 11,7 C 81 % 1015,5 hPa 0,0 l/m 0 min 0 min 0 W/m 9,7 km/h (2 Bft) 95,92 %
22.09.2018 02:48 12,6 C 11,7 C 11,7 C 81 % 1015,5 hPa 0,0 l/m 0 min 0 min 0 W/m 9,7 km/h (2 Bft) 95,65 %
22.09.2018 02:50 12,6 C 11,7 C 11,7 C 81 % 1015,5 hPa 0,0 l/m 0 min 0 min 0 W/m 6,4 km/h (2 Bft) 93,62 %
22.09.2018 02:52 12,6 C 11,7 C 11,7 C 81 % 1015,6 hPa 0,0 l/m 0 min 0 min 0 W/m 9,7 km/h (2 Bft) 97,14 %
22.09.2018 02:54 12,6 C 11,7 C 11,7 C 81 % 1015,6 hPa 0,0 l/m 0 min 0 min 0 W/m 19,3 km/h (3 Bft) 95,74 %
22.09.2018 02:56 12,5 C 11,7 C 11,7 C 81 % 1015,5 hPa 0,0 l/m 0 min 0 min 0 W/m 9,7 km/h (2 Bft) 95,74 %
22.09.2018 02:58 12,5 C 11,7 C 11,7 C 81 % 1015,5 hPa 0,0 l/m 0 min 0 min 0 W/m 16,1 km/h (3 Bft) 93,62 %
22.09.2018 03:00 12,5 C 11,7 C 11,7 C 81 % 1015,5 hPa 0,0 l/m 0 min 0 min 0 W/m 9,7 km/h (2 Bft) 95,74 %
22.09.2018 03:02 12,5 C 11,7 C 11,7 C 81 % 1015,6 hPa 0,0 l/m 0 min 0 min 0 W/m 12,9 km/h (3 Bft) 97,83 %
22.09.2018 03:04 12,4 C 11,7 C 11,7 C 81 % 1015,5 hPa 0,0 l/m 0 min 0 min 0 W/m 16,1 km/h (3 Bft) 95,83 %
22.09.2018 03:06 12,4 C 11,7 C 11,7 C 81 % 1015,6 hPa 0,0 l/m 0 min 0 min 0 W/m 12,9 km/h (3 Bft) 97,87 %
22.09.2018 03:08 12,4 C 11,7 C 11,7 C 81 % 1015,6 hPa 0,0 l/m 0 min 0 min 0 W/m 9,7 km/h (2 Bft) 97,87 %
22.09.2018 03:10 12,4 C 11,7 C 11,7 C 81 % 1015,6 hPa 0,0 l/m 0 min 0 min 0 W/m 16,1 km/h (3 Bft) 97,87 %
22.09.2018 03:12 12,4 C 11,7 C 11,7 C 81 % 1015,7 hPa 0,0 l/m 0 min 0 min 0 W/m 9,7 km/h (2 Bft) 97,87 %
22.09.2018 03:14 12,3 C 11,7 C 11,7 C 81 % 1015,7 hPa 0,0 l/m 0 min 0 min 0 W/m 16,1 km/h (3 Bft) 95,65 %
22.09.2018 03:16 12,3 C 11,7 C 11,7 C 81 % 1015,8 hPa 0,0 l/m 0 min 0 min 0 W/m 9,7 km/h (2 Bft) 97,87 %
22.09.2018 03:18 12,3 C 11,7 C 11,7 C 81 % 1015,8 hPa 0,0 l/m 0 min 0 min 0 W/m 22,5 km/h (4 Bft) 97,87 %
22.09.2018 03:20 12,3 C 11,7 C 11,7 C 81 % 1015,8 hPa 0,0 l/m 0 min 0 min 0 W/m 12,9 km/h (3 Bft) 97,87 %
22.09.2018 03:22 12,3 C 11,7 C 11,7 C 81 % 1015,8 hPa 0,0 l/m 0 min 0 min 0 W/m 9,7 km/h (2 Bft) 95,74 %
22.09.2018 03:24 12,3 C 11,7 C 11,7 C 81 % 1015,9 hPa 0,0 l/m 0 min 0 min 0 W/m 9,7 km/h (2 Bft) 97,87 %
22.09.2018 03:26 12,3 C 11,7 C 11,7 C 81 % 1015,9 hPa 0,0 l/m 0 min 0 min 0 W/m 9,7 km/h (2 Bft) 97,83 %
22.09.2018 03:28 12,3 C 11,7 C 11,7 C 81 % 1016,0 hPa 0,0 l/m 0 min 0 min 0 W/m 19,3 km/h (3 Bft) 97,87 %
22.09.2018 03:30 12,2 C 11,7 C 11,7 C 81 % 1015,9 hPa 0,0 l/m 0 min 0 min 0 W/m 9,7 km/h (2 Bft) 97,87 %
22.09.2018 03:32 12,2 C 11,7 C 11,7 C 81 % 1015,9 hPa 0,0 l/m 0 min 0 min 0 W/m 16,1 km/h (3 Bft) 97,87 %
22.09.2018 03:34 12,2 C 11,7 C 11,7 C 81 % 1015,9 hPa 0,0 l/m 0 min 0 min 0 W/m 3,2 km/h (1 Bft) 95,74 %
22.09.2018 03:36 12,2 C 11,7 C 11,7 C 81 % 1015,9 hPa 0,0 l/m 0 min 0 min 0 W/m 9,7 km/h (2 Bft) 95,74 %
22.09.2018 03:38 12,2 C 11,7 C 11,7 C 81 % 1016,0 hPa 0,0 l/m 0 min 0 min 0 W/m 16,1 km/h (3 Bft) 97,83 %
22.09.2018 03:40 12,2 C 11,7 C 11,7 C 81 % 1016,1 hPa 0,0 l/m 0 min 0 min 0 W/m 19,3 km/h (3 Bft) 97,87 %
22.09.2018 03:42 12,2 C 11,7 C 11,7 C 81 % 1016,1 hPa 0,0 l/m 0 min 0 min 0 W/m 16,1 km/h (3 Bft) 97,87 %
22.09.2018 03:44 12,2 C 11,7 C 11,7 C 81 % 1016,2 hPa 0,0 l/m 0 min 0 min 0 W/m 19,3 km/h (3 Bft) 97,87 %
22.09.2018 03:46 12,2 C 11,7 C 11,7 C 81 % 1016,2 hPa 0,0 l/m 0 min 0 min 0 W/m 12,9 km/h (3 Bft) 97,92 %
22.09.2018 03:48 12,2 C 11,7 C 11,7 C 81 % 1016,2 hPa 0,0 l/m 0 min 0 min 0 W/m 3,2 km/h (1 Bft) 93,62 %
22.09.2018 03:50 12,2 C 11,7 C 11,7 C 81 % 1016,2 hPa 0,0 l/m 0 min 0 min 0 W/m 9,7 km/h (2 Bft) 97,83 %
22.09.2018 03:52 12,2 C 11,7 C 11,7 C 81 % 1016,2 hPa 0,0 l/m 0 min 0 min 0 W/m 9,7 km/h (2 Bft) 97,87 %
22.09.2018 03:54 12,2 C 11,7 C 11,7 C 81 % 1016,2 hPa 0,0 l/m 0 min 0 min 0 W/m 6,4 km/h (2 Bft) 100,00 %
22.09.2018 03:56 12,2 C 11,7 C 11,7 C 81 % 1016,3 hPa 0,0 l/m 0 min 0 min 0 W/m 6,4 km/h (2 Bft) 100,00 %
22.09.2018 03:58 12,2 C 11,7 C 11,7 C 81 % 1016,3 hPa 0,0 l/m 0 min 0 min 0 W/m 3,2 km/h (1 Bft) 97,87 %
22.09.2018 04:00 12,1 C 11,1 C 11,7 C 81 % 1016,3 hPa 0,0 l/m 0 min 0 min 0 W/m 6,4 km/h (2 Bft) 97,87 %
22.09.2018 04:02 12,1 C 11,1 C 11,7 C 81 % 1016,3 hPa 0,0 l/m 0 min 0 min 0 W/m 3,2 km/h (1 Bft) 100,00 %
22.09.2018 04:04 12,1 C 11,1 C 11,7 C 82 % 1016,3 hPa 0,0 l/m 0 min 0 min 0 W/m 3,2 km/h (1 Bft) 97,87 %
22.09.2018 04:06 12,1 C 11,1 C 11,7 C 82 % 1016,3 hPa 0,0 l/m 0 min 0 min 0 W/m 3,2 km/h (1 Bft) 97,87 %
22.09.2018 04:08 12,1 C 11,1 C 11,7 C 82 % 1016,2 hPa 0,0 l/m 0 min 0 min 0 W/m 12,9 km/h (3 Bft) 95,65 %
22.09.2018 04:10 12,1 C 11,1 C 11,7 C 82 % 1016,3 hPa 0,0 l/m 0 min 0 min 0 W/m 16,1 km/h (3 Bft) 100,00 %
22.09.2018 04:12 12,1 C 11,1 C 11,7 C 82 % 1016,4 hPa 0,0 l/m 0 min 0 min 0 W/m 6,4 km/h (2 Bft) 100,00 %
22.09.2018 04:14 12,1 C 11,1 C 11,7 C 82 % 1016,4 hPa 0,0 l/m 0 min 0 min 0 W/m 6,4 km/h (2 Bft) 97,87 %
22.09.2018 04:16 12,0 C 11,1 C 11,1 C 82 % 1016,5 hPa 0,0 l/m 0 min 0 min 0 W/m 9,7 km/h (2 Bft) 100,00 %
22.09.2018 04:18 12,0 C 11,1 C 11,1 C 82 % 1016,4 hPa 0,0 l/m 0 min 0 min 0 W/m 6,4 km/h (2 Bft) 97,87 %
22.09.2018 04:20 12,0 C 11,1 C 11,1 C 82 % 1016,4 hPa 0,0 l/m 0 min 0 min 0 W/m 12,9 km/h (3 Bft) 97,83 %
22.09.2018 04:22 11,9 C 11,1 C 11,1 C 82 % 1016,5 hPa 0,0 l/m 0 min 0 min 0 W/m 3,2 km/h (1 Bft) 97,87 %
22.09.2018 04:24 11,9 C 11,1 C 11,1 C 82 % 1016,6 hPa 0,0 l/m 0 min 0 min 0 W/m 9,7 km/h (2 Bft) 95,74 %
22.09.2018 04:26 11,9 C 11,1 C 11,1 C 82 % 1016,7 hPa 0,0 l/m 0 min 0 min 0 W/m 6,4 km/h (2 Bft) 97,87 %
22.09.2018 04:28 11,9 C 11,1 C 11,1 C 82 % 1016,7 hPa 0,0 l/m 0 min 0 min 0 W/m 9,7 km/h (2 Bft) 95,74 %
22.09.2018 04:30 11,9 C 11,1 C 11,1 C 82 % 1016,6 hPa 0,0 l/m 0 min 0 min 0 W/m 12,9 km/h (3 Bft) 97,87 %
22.09.2018 04:32 11,9 C 11,1 C 11,1 C 82 % 1016,7 hPa 0,0 l/m 0 min 0 min 0 W/m 9,7 km/h (2 Bft) 97,56 %
22.09.2018 04:34 11,9 C 11,1 C 11,1 C 82 % 1016,7 hPa 0,0 l/m 0 min 0 min 0 W/m 9,7 km/h (2 Bft) 97,87 %
22.09.2018 04:36 11,8 C 11,1 C 11,1 C 82 % 1016,7 hPa 0,0 l/m 0 min 0 min 0 W/m 12,9 km/h (3 Bft) 97,83 %
22.09.2018 04:38 11,8 C 11,1 C 11,1 C 82 % 1016,7 hPa 0,0 l/m 0 min 0 min 0 W/m 9,7 km/h (2 Bft) 95,74 %
22.09.2018 04:40 11,8 C 11,1 C 11,1 C 82 % 1016,8 hPa 0,0 l/m 0 min 0 min 0 W/m 6,4 km/h (2 Bft) 97,87 %
22.09.2018 04:42 11,8 C 11,1 C 11,1 C 82 % 1016,7 hPa 0,0 l/m 0 min 0 min 0 W/m 12,9 km/h (3 Bft) 97,87 %
22.09.2018 04:44 11,8 C 11,1 C 11,1 C 82 % 1016,7 hPa 0,0 l/m 0 min 0 min 0 W/m 9,7 km/h (2 Bft) 93,62 %
22.09.2018 04:46 11,8 C 11,1 C 11,1 C 82 % 1016,5 hPa 0,0 l/m 0 min 0 min 0 W/m 3,2 km/h (1 Bft) 93,48 %
22.09.2018 04:48 11,8 C 11,1 C 11,1 C 82 % 1016,5 hPa 0,0 l/m 0 min 0 min 0 W/m 6,4 km/h (2 Bft) 95,83 %
22.09.2018 04:50 11,8 C 11,1 C 11,1 C 82 % 1016,6 hPa 0,0 l/m 0 min 0 min 0 W/m 12,9 km/h (3 Bft) 97,87 %
22.09.2018 04:52 11,8 C 11,1 C 11,1 C 82 % 1016,7 hPa 0,0 l/m 0 min 0 min 0 W/m 6,4 km/h (2 Bft) 97,87 %
22.09.2018 04:54 11,8 C 10,6 C 11,1 C 82 % 1016,7 hPa 0,0 l/m 0 min 0 min 0 W/m 3,2 km/h (1 Bft) 97,87 %
22.09.2018 04:56 11,7 C 10,6 C 11,1 C 82 % 1016,7 hPa 0,0 l/m 0 min 0 min 0 W/m 9,7 km/h (2 Bft) 95,74 %
22.09.2018 04:58 11,7 C 10,6 C 11,1 C 82 % 1016,7 hPa 0,0 l/m 0 min 0 min 0 W/m 9,7 km/h (2 Bft) 93,48 %
22.09.2018 05:00 11,7 C 10,6 C 11,1 C 82 % 1016,7 hPa 0,0 l/m 0 min 0 min 0 W/m 12,9 km/h (3 Bft) 95,74 %
22.09.2018 05:02 11,7 C 11,1 C 11,1 C 82 % 1016,7 hPa 0,0 l/m 0 min 0 min 0 W/m 9,7 km/h (2 Bft) 93,75 %
22.09.2018 05:04 11,7 C 11,1 C 11,1 C 83 % 1016,7 hPa 0,0 l/m 0 min 0 min 0 W/m 6,4 km/h (2 Bft) 95,74 %
22.09.2018 05:06 11,7 C 11,1 C 11,1 C 83 % 1016,7 hPa 0,0 l/m 0 min 0 min 0 W/m 6,4 km/h (2 Bft) 95,74 %
22.09.2018 05:08 11,7 C 11,1 C 11,1 C 83 % 1016,7 hPa 0,0 l/m 0 min 0 min 0 W/m 6,4 km/h (2 Bft) 95,74 %
22.09.2018 05:10 11,7 C 11,1 C 11,1 C 83 % 1016,6 hPa 0,0 l/m 0 min 0 min 0 W/m 9,7 km/h (2 Bft) 97,83 %
22.09.2018 05:12 11,6 C 11,1 C 11,1 C 83 % 1016,6 hPa 0,0 l/m 0 min 0 min 0 W/m 3,2 km/h (1 Bft) 97,87 %
22.09.2018 05:14 11,6 C 11,1 C 11,1 C 83 % 1016,6 hPa 0,0 l/m 0 min 0 min 0 W/m 9,7 km/h (2 Bft) 95,74 %
22.09.2018 05:16 11,6 C 11,1 C 11,1 C 83 % 1016,7 hPa 0,0 l/m 0 min 0 min 0 W/m 3,2 km/h (1 Bft) 97,92 %
22.09.2018 05:18 11,6 C 11,1 C 11,1 C 83 % 1016,7 hPa 0,0 l/m 0 min 0 min 0 W/m 3,2 km/h (1 Bft) 97,87 %
22.09.2018 05:20 11,6 C 11,1 C 11,1 C 83 % 1016,9 hPa 0,0 l/m 0 min 0 min 0 W/m 3,2 km/h (1 Bft) 97,83 %
22.09.2018 05:22 11,6 C 11,1 C 11,1 C 83 % 1016,8 hPa 0,0 l/m 0 min 0 min 0 W/m 9,7 km/h (2 Bft) 95,74 %
22.09.2018 05:24 11,6 C 11,1 C 11,1 C 83 % 1016,8 hPa 0,0 l/m 0 min 0 min 0 W/m 9,7 km/h (2 Bft) 97,62 %
22.09.2018 05:26 11,6 C 11,1 C 11,1 C 83 % 1016,9 hPa 0,0 l/m 0 min 0 min 0 W/m 3,2 km/h (1 Bft) 97,87 %
22.09.2018 05:28 11,6 C 11,1 C 11,1 C 84 % 1017,0 hPa 0,0 l/m 0 min 0 min 0 W/m 3,2 km/h (1 Bft) 97,87 %
22.09.2018 05:30 11,6 C 11,1 C 11,1 C 84 % 1017,0 hPa 0,0 l/m 0 min 0 min 0 W/m 6,4 km/h (2 Bft) 97,87 %
22.09.2018 05:32 11,6 C 11,1 C 11,1 C 84 % 1016,8 hPa 0,0 l/m 0 min 0 min 0 W/m 3,2 km/h (1 Bft) 97,56 %
22.09.2018 05:34 11,7 C 11,1 C 11,1 C 84 % 1016,9 hPa 0,0 l/m 0 min 0 min 0 W/m 3,2 km/h (1 Bft) 97,87 %
22.09.2018 05:36 11,7 C 11,1 C 11,1 C 84 % 1017,0 hPa 0,0 l/m 0 min 0 min 0 W/m 9,7 km/h (2 Bft) 97,83 %
22.09.2018 05:38 11,7 C 11,1 C 11,7 C 84 % 1016,9 hPa 0,0 l/m 0 min 0 min 0 W/m 3,2 km/h (1 Bft) 95,74 %
22.09.2018 05:40 11,7 C 11,7 C 11,7 C 84 % 1017,0 hPa 0,0 l/m 0 min 0 min 0 W/m 3,2 km/h (1 Bft) 97,87 %
22.09.2018 05:42 11,7 C 11,7 C 11,7 C 84 % 1017,0 hPa 0,0 l/m 0 min 0 min 0 W/m 9,7 km/h (2 Bft) 97,87 %
22.09.2018 05:44 11,7 C 11,7 C 11,7 C 84 % 1017,0 hPa 0,0 l/m 0 min 0 min 0 W/m 12,9 km/h (3 Bft) 97,87 %
22.09.2018 05:46 11,7 C 11,7 C 11,7 C 83 % 1017,0 hPa 0,0 l/m 0 min 0 min 0 W/m 3,2 km/h (1 Bft) 100,00 %
22.09.2018 05:48 11,8 C 11,7 C 11,7 C 83 % 1016,9 hPa 0,0 l/m 0 min 0 min 0 W/m 3,2 km/h (1 Bft) 100,00 %
22.09.2018 05:50 11,8 C 11,7 C 11,7 C 83 % 1016,9 hPa 0,0 l/m 0 min 0 min 0 W/m 9,7 km/h (2 Bft) 100,00 %
22.09.2018 05:52 11,8 C 11,7 C 11,7 C 83 % 1017,0 hPa 0,0 l/m 0 min 0 min 0 W/m 12,9 km/h (3 Bft) 100,00 %
22.09.2018 05:54 11,8 C 11,7 C 11,7 C 83 % 1016,9 hPa 0,0 l/m 0 min 0 min 0 W/m 3,2 km/h (1 Bft) 97,83 %
22.09.2018 05:56 11,8 C 11,7 C 11,7 C 83 % 1016,8 hPa 0,0 l/m 0 min 0 min 0 W/m 3,2 km/h (1 Bft) 100,00 %
22.09.2018 05:58 11,9 C 11,7 C 11,7 C 83 % 1016,9 hPa 0,0 l/m 0 min 0 min 0 W/m 3,2 km/h (1 Bft) 97,87 %
22.09.2018 06:00 11,9 C 11,7 C 11,7 C 83 % 1016,9 hPa 0,0 l/m 0 min 0 min 0 W/m 3,2 km/h (1 Bft) 100,00 %
22.09.2018 06:02 11,9 C 11,1 C 11,7 C 83 % 1017,0 hPa 0,0 l/m 0 min 0 min 0 W/m 6,4 km/h (2 Bft) 100,00 %
22.09.2018 06:04 11,9 C 11,1 C 11,7 C 83 % 1017,0 hPa 0,0 l/m 0 min 0 min 0 W/m 3,2 km/h (1 Bft) 100,00 %
22.09.2018 06:06 11,9 C 11,1 C 11,7 C 83 % 1017,0 hPa 0,0 l/m 0 min 0 min 0 W/m 9,7 km/h (2 Bft) 100,00 %
22.09.2018 06:08 11,9 C 11,7 C 11,7 C 83 % 1017,1 hPa 0,0 l/m 0 min 0 min 0 W/m 6,4 km/h (2 Bft) 100,00 %
22.09.2018 06:10 11,9 C 11,7 C 11,7 C 83 % 1017,1 hPa 0,0 l/m 0 min 0 min 0 W/m 6,4 km/h (2 Bft) 100,00 %
22.09.2018 06:12 11,9 C 11,7 C 11,7 C 83 % 1017,1 hPa 0,0 l/m 0 min 0 min 0 W/m 6,4 km/h (2 Bft) 100,00 %
22.09.2018 06:14 11,9 C 11,7 C 11,7 C 83 % 1017,1 hPa 0,0 l/m 0 min 0 min 0 W/m 9,7 km/h (2 Bft) 100,00 %
22.09.2018 06:16 11,9 C 11,7 C 11,7 C 83 % 1017,1 hPa 0,0 l/m 0 min 0 min 0 W/m 3,2 km/h (1 Bft) 100,00 %
22.09.2018 06:18 11,9 C 11,7 C 11,7 C 83 % 1017,1 hPa 0,0 l/m 0 min 0 min 0 W/m 3,2 km/h (1 Bft) 100,00 %
22.09.2018 06:20 11,9 C 11,7 C 11,7 C 83 % 1017,2 hPa 0,0 l/m 0 min 0 min 0 W/m 6,4 km/h (2 Bft) 100,00 %
22.09.2018 06:22 11,9 C 11,7 C 11,7 C 83 % 1017,3 hPa 0,0 l/m 0 min 0 min 0 W/m 3,2 km/h (1 Bft) 100,00 %
22.09.2018 06:24 11,9 C 11,7 C 11,7 C 82 % 1017,3 hPa 0,0 l/m 0 min 0 min 0 W/m 6,4 km/h (2 Bft) 97,87 %
22.09.2018 06:26 11,9 C 11,1 C 11,7 C 82 % 1017,2 hPa 0,0 l/m 0 min 0 min 0 W/m 3,2 km/h (1 Bft) 97,87 %
22.09.2018 06:28 11,9 C 11,1 C 11,7 C 82 % 1017,2 hPa 0,0 l/m 0 min 0 min 0 W/m 3,2 km/h (1 Bft) 100,00 %
22.09.2018 06:30 11,9 C 11,1 C 11,7 C 82 % 1017,3 hPa 0,0 l/m 0 min 0 min 0 W/m 3,2 km/h (1 Bft) 100,00 %
22.09.2018 06:32 11,9 C 11,1 C 11,7 C 82 % 1017,4 hPa 0,0 l/m 0 min 0 min 0 W/m 6,4 km/h (2 Bft) 100,00 %
22.09.2018 06:34 11,9 C 11,1 C 11,7 C 82 % 1017,3 hPa 0,0 l/m 0 min 0 min 0 W/m 9,7 km/h (2 Bft) 100,00 %
22.09.2018 06:36 11,9 C 11,1 C 11,1 C 82 % 1017,3 hPa 0,0 l/m 0 min 0 min 0 W/m 9,7 km/h (2 Bft) 100,00 %
22.09.2018 06:38 11,9 C 11,1 C 11,1 C 82 % 1017,3 hPa 0,0 l/m 0 min 0 min 0 W/m 6,4 km/h (2 Bft) 100,00 %
22.09.2018 06:40 11,9 C 11,1 C 11,1 C 82 % 1017,3 hPa 0,0 l/m 0 min 0 min 0 W/m 3,2 km/h (1 Bft) 97,83 %
22.09.2018 06:42 11,9 C 11,1 C 11,1 C 82 % 1017,3 hPa 0,0 l/m 0 min 0 min 0 W/m 6,4 km/h (2 Bft) 100,00 %
22.09.2018 06:44 11,9 C 11,1 C 11,1 C 82 % 1017,4 hPa 0,0 l/m 0 min 0 min 0 W/m 6,4 km/h (2 Bft) 100,00 %
22.09.2018 06:46 11,9 C 11,1 C 11,1 C 82 % 1017,4 hPa 0,0 l/m 0 min 0 min 0 W/m 6,4 km/h (2 Bft) 100,00 %
22.09.2018 06:48 11,9 C 11,1 C 11,1 C 82 % 1017,4 hPa 0,0 l/m 0 min 0 min 0 W/m 3,2 km/h (1 Bft) 100,00 %
22.09.2018 06:50 11,8 C 11,1 C 11,1 C 82 % 1017,5 hPa 0,0 l/m 0 min 0 min 0 W/m 6,4 km/h (2 Bft) 97,87 %
22.09.2018 06:52 11,8 C 11,1 C 11,1 C 82 % 1017,5 hPa 0,0 l/m 0 min 0 min 0 W/m 3,2 km/h (1 Bft) 97,87 %
22.09.2018 06:54 11,8 C 11,1 C 11,1 C 82 % 1017,5 hPa 0,0 l/m 0 min 0 min 0 W/m 3,2 km/h (1 Bft) 98,18 %
22.09.2018 06:56 11,8 C 11,1 C 11,1 C 82 % 1017,5 hPa 0,0 l/m 0 min 0 min 0 W/m 9,7 km/h (2 Bft) 97,87 %
22.09.2018 06:58 11,8 C 11,1 C 11,1 C 82 % 1017,6 hPa 0,0 l/m 0 min 0 min 0 W/m 3,2 km/h (1 Bft) 97,87 %
22.09.2018 07:00 11,8 C 11,1 C 11,1 C 82 % 1017,6 hPa 0,0 l/m 0 min 0 min 0 W/m 12,9 km/h (3 Bft) 97,87 %
22.09.2018 07:02 11,7 C 11,1 C 11,1 C 82 % 1017,5 hPa 0,0 l/m 0 min 0 min 0 W/m 9,7 km/h (2 Bft) 97,87 %
22.09.2018 07:04 11,7 C 11,1 C 11,1 C 82 % 1017,5 hPa 0,0 l/m 0 min 0 min 0 W/m 19,3 km/h (3 Bft) 97,83 %
22.09.2018 07:06 11,7 C 11,1 C 11,1 C 82 % 1017,5 hPa 0,0 l/m 0 min 0 min 0 W/m 12,9 km/h (3 Bft) 95,74 %
22.09.2018 07:08 11,7 C 11,1 C 11,1 C 82 % 1017,5 hPa 0,0 l/m 0 min 0 min 0 W/m 9,7 km/h (2 Bft) 97,87 %
22.09.2018 07:10 11,7 C 11,1 C 11,1 C 83 % 1017,5 hPa 0,0 l/m 0 min 0 min 3 W/m 6,4 km/h (2 Bft) 93,62 %
22.09.2018 07:12 11,7 C 11,1 C 11,1 C 83 % 1017,6 hPa 0,0 l/m 0 min 0 min 5 W/m 12,9 km/h (3 Bft) 95,74 %
22.09.2018 07:14 11,7 C 11,1 C 11,1 C 83 % 1017,6 hPa 0,0 l/m 0 min 0 min 6 W/m 3,2 km/h (1 Bft) 95,74 %
22.09.2018 07:16 11,6 C 11,1 C 11,1 C 83 % 1017,7 hPa 0,0 l/m 0 min 0 min 7 W/m 9,7 km/h (2 Bft) 95,65 %
22.09.2018 07:18 11,6 C 11,1 C 11,1 C 83 % 1017,6 hPa 0,0 l/m 0 min 0 min 7 W/m 9,7 km/h (2 Bft) 93,62 %
22.09.2018 07:20 11,6 C 11,1 C 11,1 C 83 % 1017,7 hPa 0,0 l/m 0 min 0 min 7 W/m 12,9 km/h (3 Bft) 93,62 %
22.09.2018 07:22 11,6 C 11,1 C 11,1 C 83 % 1017,7 hPa 0,0 l/m 0 min 0 min 6 W/m 9,7 km/h (2 Bft) 93,75 %
22.09.2018 07:24 11,6 C 11,1 C 11,1 C 83 % 1017,7 hPa 0,0 l/m 0 min 0 min 5 W/m 6,4 km/h (2 Bft) 94,29 %
22.09.2018 07:26 11,6 C 11,1 C 11,1 C 83 % 1017,7 hPa 0,0 l/m 0 min 0 min 7 W/m 3,2 km/h (1 Bft) 91,49 %
22.09.2018 07:30 11,6 C 11,1 C 11,1 C 83 % 1017,8 hPa 0,0 l/m 0 min 0 min 7 W/m 12,9 km/h (3 Bft) 95,61 %
22.09.2018 07:34 11,6 C 11,1 C 11,1 C 83 % 1017,9 hPa 0,0 l/m 0 min 0 min 11 W/m 3,2 km/h (1 Bft) 93,22 %
22.09.2018 07:38 11,5 C 11,1 C 11,1 C 84 % 1017,9 hPa 0,0 l/m 0 min 0 min 12 W/m 9,7 km/h (2 Bft) 94,68 %
22.09.2018 07:40 11,5 C 11,1 C 11,1 C 84 % 1017,9 hPa 0,0 l/m 0 min 0 min 14 W/m 9,7 km/h (2 Bft) 93,48 %
22.09.2018 07:42 11,5 C 11,1 C 11,1 C 84 % 1017,9 hPa 0,0 l/m 0 min 0 min 14 W/m 9,7 km/h (2 Bft) 91,49 %
22.09.2018 07:44 11,5 C 11,1 C 11,1 C 84 % 1017,8 hPa 0,0 l/m 0 min 0 min 15 W/m 6,4 km/h (2 Bft) 93,62 %
22.09.2018 07:46 11,5 C 11,1 C 11,1 C 84 % 1017,8 hPa 0,0 l/m 0 min 0 min 16 W/m 6,4 km/h (2 Bft) 93,88 %
22.09.2018 07:48 11,5 C 11,1 C 11,1 C 84 % 1017,9 hPa 0,0 l/m 0 min 0 min 17 W/m 6,4 km/h (2 Bft) 91,43 %
22.09.2018 07:50 11,5 C 11,1 C 11,1 C 84 % 1017,9 hPa 0,0 l/m 0 min 0 min 20 W/m 9,7 km/h (2 Bft) 93,62 %
22.09.2018 07:52 11,5 C 11,1 C 11,1 C 84 % 1018,0 hPa 0,0 l/m 0 min 0 min 24 W/m 6,4 km/h (2 Bft) 94,34 %
22.09.2018 07:54 11,5 C 11,1 C 11,1 C 84 % 1018,0 hPa 0,0 l/m 0 min 0 min 30 W/m 9,7 km/h (2 Bft) 93,62 %
22.09.2018 07:56 11,4 C 11,1 C 11,1 C 84 % 1018,0 hPa 0,0 l/m 0 min 0 min 29 W/m 9,7 km/h (2 Bft) 92,00 %
22.09.2018 07:58 11,5 C 11,1 C 11,1 C 84 % 1018,1 hPa 0,0 l/m 0 min 0 min 33 W/m 6,4 km/h (2 Bft) 95,74 %
22.09.2018 08:00 11,4 C 11,1 C 11,1 C 84 % 1018,0 hPa 0,0 l/m 0 min 0 min 45 W/m 9,7 km/h (2 Bft) 95,74 %
22.09.2018 08:02 11,5 C 11,1 C 11,1 C 84 % 1018,3 hPa 0,0 l/m 2 min 0 min 59 W/m 12,9 km/h (3 Bft) 95,65 %
22.09.2018 08:04 11,5 C 11,1 C 11,1 C 84 % 1018,1 hPa 0,0 l/m 2 min 0 min 56 W/m 9,7 km/h (2 Bft) 95,74 %
22.09.2018 08:08 11,5 C 11,1 C 11,1 C 84 % 1018,0 hPa 0,0 l/m 0 min 0 min 55 W/m 9,7 km/h (2 Bft) 95,79 %
22.09.2018 08:10 11,5 C 11,1 C 11,1 C 84 % 1018,1 hPa 0,0 l/m 0 min 0 min 57 W/m 9,7 km/h (2 Bft) 95,74 %
22.09.2018 08:12 11,5 C 11,1 C 11,1 C 84 % 1018,1 hPa 0,0 l/m 0 min 0 min 62 W/m 9,7 km/h (2 Bft) 95,65 %
22.09.2018 08:14 11,5 C 11,1 C 11,1 C 84 % 1018,1 hPa 0,0 l/m 0 min 0 min 63 W/m 6,4 km/h (2 Bft) 97,87 %
22.09.2018 08:16 11,5 C 11,1 C 11,1 C 85 % 1018,1 hPa 0,0 l/m 0 min 0 min 60 W/m 9,7 km/h (2 Bft) 97,67 %
22.09.2018 08:18 11,5 C 11,1 C 11,1 C 85 % 1018,0 hPa 0,0 l/m 0 min 0 min 58 W/m 9,7 km/h (2 Bft) 97,83 %
22.09.2018 08:20 11,6 C 11,1 C 11,1 C 85 % 1018,1 hPa 0,0 l/m 0 min 0 min 60 W/m 9,7 km/h (2 Bft) 96,36 %
22.09.2018 08:22 11,6 C 11,1 C 11,1 C 85 % 1018,0 hPa 0,0 l/m 0 min 0 min 57 W/m 9,7 km/h (2 Bft) 95,74 %
22.09.2018 08:24 11,6 C 11,1 C 11,1 C 85 % 1018,1 hPa 0,0 l/m 0 min 0 min 53 W/m 12,9 km/h (3 Bft) 97,83 %
22.09.2018 08:26 11,6 C 11,1 C 11,1 C 85 % 1017,8 hPa 0,0 l/m 0 min 0 min 56 W/m 9,7 km/h (2 Bft) 100,00 %
22.09.2018 08:28 11,6 C 11,1 C 11,1 C 85 % 1017,8 hPa 0,0 l/m 0 min 0 min 67 W/m 19,3 km/h (3 Bft) 97,87 %
22.09.2018 08:30 11,6 C 11,1 C 11,1 C 85 % 1018,0 hPa 0,0 l/m 0 min 0 min 77 W/m 16,1 km/h (3 Bft) 100,00 %
22.09.2018 08:32 11,6 C 11,7 C 11,1 C 85 % 1018,2 hPa 0,0 l/m 0 min 0 min 80 W/m 9,7 km/h (2 Bft) 100,00 %
22.09.2018 08:34 11,6 C 11,7 C 11,1 C 85 % 1018,0 hPa 0,0 l/m 0 min 0 min 79 W/m 9,7 km/h (2 Bft) 100,00 %
22.09.2018 08:36 11,6 C 11,7 C 11,1 C 85 % 1018,0 hPa 0,0 l/m 0 min 0 min 88 W/m 9,7 km/h (2 Bft) 100,00 %
22.09.2018 08:38 11,6 C 11,7 C 11,1 C 85 % 1018,0 hPa 0,0 l/m 2 min 0 min 99 W/m 9,7 km/h (2 Bft) 97,83 %
22.09.2018 08:40 11,7 C 11,7 C 11,1 C 85 % 1018,0 hPa 0,0 l/m 2 min 0 min 100 W/m 9,7 km/h (2 Bft) 100,00 %
22.09.2018 08:42 11,7 C 11,7 C 11,1 C 85 % 1018,0 hPa 0,0 l/m 0 min 0 min 90 W/m 6,4 km/h (2 Bft) 100,00 %
22.09.2018 08:44 11,7 C 11,7 C 11,1 C 85 % 1018,0 hPa 0,0 l/m 0 min 0 min 80 W/m 9,7 km/h (2 Bft) 100,00 %
22.09.2018 08:46 11,7 C 11,7 C 11,1 C 85 % 1017,9 hPa 0,0 l/m 0 min 0 min 81 W/m 16,1 km/h (3 Bft) 97,96 %
22.09.2018 08:48 11,7 C 11,7 C 11,1 C 85 % 1017,9 hPa 0,0 l/m 0 min 0 min 89 W/m 9,7 km/h (2 Bft) 100,00 %
22.09.2018 08:50 11,8 C 11,7 C 11,1 C 85 % 1018,0 hPa 0,0 l/m 0 min 0 min 94 W/m 16,1 km/h (3 Bft) 100,00 %
22.09.2018 08:52 11,8 C 11,7 C 11,7 C 85 % 1018,0 hPa 0,0 l/m 0 min 0 min 98 W/m 9,7 km/h (2 Bft) 100,00 %
22.09.2018 08:54 11,8 C 11,7 C 11,7 C 85 % 1018,0 hPa 0,0 l/m 0 min 0 min 98 W/m 6,4 km/h (2 Bft) 100,00 %
22.09.2018 08:56 11,8 C 11,7 C 11,7 C 85 % 1018,0 hPa 0,0 l/m 0 min 0 min 100 W/m 9,7 km/h (2 Bft) 100,00 %
22.09.2018 08:58 11,9 C 11,7 C 11,7 C 84 % 1018,0 hPa 0,0 l/m 0 min 0 min 100 W/m 12,9 km/h (3 Bft) 100,00 %
22.09.2018 09:00 11,9 C 11,7 C 11,7 C 84 % 1018,0 hPa 0,0 l/m 0 min 0 min 104 W/m 9,7 km/h (2 Bft) 100,00 %
22.09.2018 09:02 11,9 C 12,2 C 11,7 C 84 % 1018,0 hPa 0,0 l/m 0 min 0 min 119 W/m 12,9 km/h (3 Bft) 98,00 %
22.09.2018 09:04 11,9 C 12,2 C 11,7 C 84 % 1018,1 hPa 0,0 l/m 2 min 0 min 134 W/m 9,7 km/h (2 Bft) 100,00 %
22.09.2018 09:08 12,0 C 12,2 C 11,7 C 84 % 1018,1 hPa 0,0 l/m 4 min 0 min 137 W/m 12,9 km/h (3 Bft) 98,94 %
22.09.2018 09:10 12,1 C 12,2 C 11,7 C 84 % 1018,0 hPa 0,0 l/m 0 min 0 min 125 W/m 9,7 km/h (2 Bft) 100,00 %
22.09.2018 09:12 12,1 C 12,2 C 11,7 C 84 % 1018,1 hPa 0,0 l/m 0 min 0 min 122 W/m 6,4 km/h (2 Bft) 97,87 %
22.09.2018 09:14 12,1 C 12,2 C 11,7 C 84 % 1018,1 hPa 0,0 l/m 0 min 0 min 119 W/m 6,4 km/h (2 Bft) 100,00 %
22.09.2018 09:16 12,2 C 12,2 C 11,7 C 84 % 1018,1 hPa 0,0 l/m 0 min 0 min 120 W/m 9,7 km/h (2 Bft) 100,00 %
22.09.2018 09:18 12,2 C 12,2 C 11,7 C 84 % 1018,2 hPa 0,0 l/m 0 min 0 min 124 W/m 6,4 km/h (2 Bft) 100,00 %
22.09.2018 09:20 12,2 C 12,2 C 11,7 C 84 % 1018,2 hPa 0,0 l/m 0 min 0 min 127 W/m 9,7 km/h (2 Bft) 100,00 %
22.09.2018 09:22 12,2 C 12,2 C 11,7 C 84 % 1018,1 hPa 0,0 l/m 0 min 0 min 128 W/m 9,7 km/h (2 Bft) 97,87 %
22.09.2018 09:24 12,3 C 12,2 C 11,7 C 83 % 1018,2 hPa 0,0 l/m 0 min 0 min 127 W/m 12,9 km/h (3 Bft) 100,00 %
22.09.2018 09:26 12,3 C 12,2 C 12,2 C 83 % 1018,1 hPa 0,0 l/m 0 min 0 min 130 W/m 6,4 km/h (2 Bft) 100,00 %
22.09.2018 09:28 12,3 C 12,2 C 12,2 C 83 % 1018,1 hPa 0,0 l/m 0 min 0 min 136 W/m 6,4 km/h (2 Bft) 100,00 %
22.09.2018 09:30 12,3 C 12,8 C 12,2 C 83 % 1018,2 hPa 0,0 l/m 0 min 0 min 130 W/m 6,4 km/h (2 Bft) 100,00 %
22.09.2018 09:32 12,4 C 12,8 C 12,2 C 83 % 1018,3 hPa 0,0 l/m 0 min 0 min 122 W/m 9,7 km/h (2 Bft) 100,00 %
22.09.2018 09:34 12,4 C 12,2 C 12,2 C 83 % 1018,5 hPa 0,0 l/m 0 min 0 min 127 W/m 12,9 km/h (3 Bft) 100,00 %
22.09.2018 09:36 12,4 C 12,8 C 12,2 C 83 % 1018,6 hPa 0,0 l/m 0 min 0 min 143 W/m 16,1 km/h (3 Bft) 100,00 %
22.09.2018 09:38 12,4 C 12,8 C 12,2 C 83 % 1018,5 hPa 0,0 l/m 0 min 0 min 152 W/m 9,7 km/h (2 Bft) 100,00 %
22.09.2018 09:40 12,5 C 12,8 C 12,2 C 83 % 1018,4 hPa 0,0 l/m 0 min 0 min 164 W/m 9,7 km/h (2 Bft) 100,00 %
22.09.2018 09:42 12,5 C 12,8 C 12,2 C 83 % 1018,5 hPa 0,0 l/m 2 min 0 min 178 W/m 12,9 km/h (3 Bft) 100,00 %
22.09.2018 09:44 12,6 C 12,8 C 12,2 C 82 % 1018,3 hPa 0,0 l/m 2 min 0 min 180 W/m 9,7 km/h (2 Bft) 100,00 %
22.09.2018 09:46 12,6 C 12,8 C 12,2 C 82 % 1018,3 hPa 0,0 l/m 0 min 0 min 176 W/m 9,7 km/h (2 Bft) 100,00 %
22.09.2018 09:48 12,6 C 12,8 C 12,2 C 82 % 1018,3 hPa 0,0 l/m 0 min 0 min 176 W/m 9,7 km/h (2 Bft) 100,00 %
22.09.2018 09:50 12,7 C 12,8 C 12,2 C 82 % 1018,3 hPa 0,0 l/m 2 min 0 min 184 W/m 9,7 km/h (2 Bft) 100,00 %
22.09.2018 09:52 12,7 C 13,3 C 12,2 C 82 % 1018,3 hPa 0,0 l/m 2 min 0 min 192 W/m 6,4 km/h (2 Bft) 100,00 %
22.09.2018 09:54 12,7 C 13,3 C 12,2 C 82 % 1018,3 hPa 0,0 l/m 2 min 0 min 197 W/m 16,1 km/h (3 Bft) 100,00 %
22.09.2018 09:56 12,8 C 13,3 C 12,2 C 82 % 1018,4 hPa 0,0 l/m 2 min 0 min 190 W/m 16,1 km/h (3 Bft) 97,83 %
22.09.2018 09:58 12,8 C 13,3 C 12,2 C 82 % 1018,4 hPa 0,0 l/m 0 min 0 min 174 W/m 9,7 km/h (2 Bft) 95,74 %
22.09.2018 10:00 12,9 C 13,3 C 12,2 C 81 % 1018,5 hPa 0,0 l/m 0 min 0 min 164 W/m 9,7 km/h (2 Bft) 97,87 %
22.09.2018 10:02 12,9 C 12,8 C 12,2 C 81 % 1018,5 hPa 0,0 l/m 0 min 0 min 172 W/m 12,9 km/h (3 Bft) 97,87 %
22.09.2018 10:04 12,9 C 13,3 C 12,2 C 81 % 1018,5 hPa 0,0 l/m 0 min 0 min 190 W/m 12,9 km/h (3 Bft) 97,87 %
22.09.2018 10:06 12,9 C 13,3 C 12,2 C 81 % 1018,4 hPa 0,0 l/m 0 min 0 min 185 W/m 9,7 km/h (2 Bft) 97,22 %
22.09.2018 10:08 13,0 C 13,3 C 12,8 C 81 % 1018,5 hPa 0,0 l/m 0 min 0 min 176 W/m 3,2 km/h (1 Bft) 97,96 %
22.09.2018 10:10 13,1 C 13,3 C 12,8 C 81 % 1018,6 hPa 0,0 l/m 0 min 0 min 175 W/m 6,4 km/h (2 Bft) 97,83 %
22.09.2018 10:12 13,1 C 13,3 C 12,8 C 81 % 1018,6 hPa 0,0 l/m 0 min 0 min 168 W/m 6,4 km/h (2 Bft) 97,87 %
22.09.2018 10:14 13,1 C 13,3 C 12,8 C 81 % 1018,7 hPa 0,0 l/m 0 min 0 min 168 W/m 12,9 km/h (3 Bft) 95,74 %
22.09.2018 10:16 13,1 C 13,3 C 12,8 C 81 % 1018,8 hPa 0,0 l/m 0 min 0 min 173 W/m 9,7 km/h (2 Bft) 97,87 %
22.09.2018 10:18 13,2 C 13,3 C 12,8 C 80 % 1018,7 hPa 0,0 l/m 0 min 0 min 174 W/m 9,7 km/h (2 Bft) 97,96 %
22.09.2018 10:20 13,2 C 13,3 C 12,8 C 80 % 1018,7 hPa 0,0 l/m 0 min 0 min 173 W/m 12,9 km/h (3 Bft) 97,87 %
22.09.2018 10:22 13,2 C 13,3 C 12,8 C 80 % 1018,6 hPa 0,0 l/m 0 min 0 min 178 W/m 12,9 km/h (3 Bft) 97,87 %
22.09.2018 10:24 13,2 C 13,3 C 12,8 C 80 % 1018,6 hPa 0,0 l/m 0 min 0 min 179 W/m 9,7 km/h (2 Bft) 97,83 %
22.09.2018 10:26 13,3 C 13,3 C 12,8 C 80 % 1018,5 hPa 0,0 l/m 0 min 0 min 177 W/m 12,9 km/h (3 Bft) 95,74 %
22.09.2018 10:28 13,3 C 13,3 C 12,8 C 80 % 1018,6 hPa 0,0 l/m 0 min 0 min 177 W/m 16,1 km/h (3 Bft) 95,74 %
22.09.2018 10:30 13,3 C 13,3 C 12,8 C 80 % 1018,5 hPa 0,0 l/m 0 min 0 min 181 W/m 9,7 km/h (2 Bft) 93,62 %
22.09.2018 10:32 13,3 C 13,9 C 12,8 C 80 % 1018,5 hPa 0,0 l/m 0 min 0 min 182 W/m 9,7 km/h (2 Bft) 95,35 %
22.09.2018 10:34 13,4 C 13,9 C 12,8 C 80 % 1018,5 hPa 0,0 l/m 0 min 0 min 180 W/m 9,7 km/h (2 Bft) 95,83 %
22.09.2018 10:36 13,4 C 13,9 C 12,8 C 80 % 1018,5 hPa 0,0 l/m 0 min 0 min 184 W/m 12,9 km/h (3 Bft) 94,00 %
22.09.2018 10:38 13,4 C 14,4 C 12,8 C 79 % 1018,5 hPa 0,0 l/m 0 min 0 min 188 W/m 12,9 km/h (3 Bft) 93,62 %
22.09.2018 10:40 13,5 C 14,4 C 12,8 C 79 % 1018,6 hPa 0,0 l/m 0 min 0 min 180 W/m 12,9 km/h (3 Bft) 95,74 %
22.09.2018 10:42 13,5 C 14,4 C 12,8 C 79 % 1018,6 hPa 0,0 l/m 0 min 0 min 168 W/m 6,4 km/h (2 Bft) 95,74 %
22.09.2018 10:44 13,6 C 15,0 C 12,8 C 80 % 1018,5 hPa 0,0 l/m 0 min 0 min 170 W/m 6,4 km/h (2 Bft) 95,45 %
22.09.2018 10:46 13,6 C 16,1 C 12,8 C 80 % 1018,4 hPa 0,0 l/m 0 min 0 min 216 W/m 9,7 km/h (2 Bft) 91,84 %
22.09.2018 10:48 13,7 C 16,7 C 12,8 C 80 % 1018,5 hPa 0,0 l/m 2 min 0 min 338 W/m 9,7 km/h (2 Bft) 95,74 %
22.09.2018 10:50 13,8 C 18,3 C 13,3 C 79 % 1018,4 hPa 0,0 l/m 2 min 0 min 395 W/m 9,7 km/h (2 Bft) 95,74 %
22.09.2018 10:52 13,9 C 18,9 C 13,3 C 79 % 1018,4 hPa 0,0 l/m 2 min 0 min 384 W/m 9,7 km/h (2 Bft) 95,74 %
22.09.2018 10:54 14,1 C 18,9 C 13,3 C 79 % 1018,4 hPa 0,0 l/m 2 min 0 min 415 W/m 9,7 km/h (2 Bft) 93,62 %
22.09.2018 10:56 14,2 C 20,0 C 13,9 C 79 % 1018,2 hPa 0,0 l/m 2 min 0 min 454 W/m 6,4 km/h (2 Bft) 91,30 %
22.09.2018 10:58 14,3 C 20,0 C 13,9 C 79 % 1018,2 hPa 0,0 l/m 2 min 0 min 489 W/m 12,9 km/h (3 Bft) 95,74 %
22.09.2018 11:00 14,5 C 18,3 C 13,9 C 78 % 1018,4 hPa 0,0 l/m 2 min 0 min 387 W/m 16,1 km/h (3 Bft) 95,74 %
22.09.2018 11:02 14,7 C 18,3 C 13,9 C 77 % 1018,4 hPa 0,0 l/m 2 min 0 min 368 W/m 9,7 km/h (2 Bft) 95,74 %
22.09.2018 11:04 14,8 C 17,8 C 13,9 C 76 % 1018,4 hPa 0,0 l/m 2 min 0 min 447 W/m 16,1 km/h (3 Bft) 95,74 %
22.09.2018 11:08 14,9 C 16,7 C 13,9 C 75 % 1018,5 hPa 0,0 l/m 0 min 0 min 250 W/m 12,9 km/h (3 Bft) 95,74 %
22.09.2018 11:10 15,0 C 17,2 C 13,9 C 75 % 1018,6 hPa 0,0 l/m 2 min 0 min 314 W/m 16,1 km/h (3 Bft) 95,65 %
22.09.2018 11:12 15,1 C 17,2 C 13,9 C 74 % 1018,7 hPa 0,0 l/m 2 min 0 min 343 W/m 12,9 km/h (3 Bft) 93,62 %
22.09.2018 11:14 15,1 C 17,2 C 13,9 C 74 % 1018,6 hPa 0,0 l/m 2 min 0 min 320 W/m 12,9 km/h (3 Bft) 95,74 %
22.09.2018 11:16 15,1 C 18,3 C 13,9 C 74 % 1018,7 hPa 0,0 l/m 2 min 0 min 302 W/m 16,1 km/h (3 Bft) 95,12 %
22.09.2018 11:18 15,2 C 18,9 C 13,9 C 74 % 1018,7 hPa 0,0 l/m 2 min 0 min 402 W/m 16,1 km/h (3 Bft) 97,87 %
22.09.2018 11:20 15,3 C 18,9 C 13,9 C 74 % 1018,7 hPa 0,0 l/m 2 min 0 min 413 W/m 16,1 km/h (3 Bft) 97,87 %
22.09.2018 11:22 15,3 C 19,4 C 13,9 C 73 % 1018,6 hPa 0,0 l/m 2 min 0 min 423 W/m 16,1 km/h (3 Bft) 98,11 %
22.09.2018 11:24 15,4 C 19,4 C 13,9 C 73 % 1018,4 hPa 0,0 l/m 2 min 0 min 422 W/m 12,9 km/h (3 Bft) 97,87 %
22.09.2018 11:26 15,5 C 20,6 C 14,4 C 72 % 1018,3 hPa 0,0 l/m 2 min 0 min 520 W/m 16,1 km/h (3 Bft) 96,00 %
22.09.2018 11:28 15,6 C 19,4 C 14,4 C 72 % 1018,3 hPa 0,0 l/m 2 min 0 min 471 W/m 16,1 km/h (3 Bft) 97,87 %
22.09.2018 11:30 15,7 C 18,9 C 14,4 C 71 % 1018,3 hPa 0,0 l/m 2 min 0 min 422 W/m 16,1 km/h (3 Bft) 97,83 %
22.09.2018 11:32 15,8 C 18,3 C 14,4 C 71 % 1018,2 hPa 0,0 l/m 2 min 0 min 352 W/m 22,5 km/h (4 Bft) 97,87 %
22.09.2018 11:34 15,9 C 18,3 C 14,4 C 71 % 1018,2 hPa 0,0 l/m 2 min 0 min 282 W/m 16,1 km/h (3 Bft) 97,37 %
22.09.2018 11:36 15,9 C 17,2 C 14,4 C 69 % 1018,3 hPa 0,0 l/m 2 min 0 min 280 W/m 19,3 km/h (3 Bft) 97,92 %
22.09.2018 11:38 15,9 C 17,2 C 14,4 C 69 % 1018,3 hPa 0,0 l/m 2 min 0 min 290 W/m 16,1 km/h (3 Bft) 95,74 %
22.09.2018 11:40 15,9 C 17,2 C 14,4 C 70 % 1018,3 hPa 0,0 l/m 2 min 0 min 279 W/m 12,9 km/h (3 Bft) 97,87 %
22.09.2018 11:42 15,9 C 16,7 C 14,4 C 69 % 1018,2 hPa 0,0 l/m 0 min 0 min 269 W/m 19,3 km/h (3 Bft) 97,87 %
22.09.2018 11:44 15,9 C 16,7 C 14,4 C 69 % 1018,0 hPa 0,0 l/m 0 min 0 min 277 W/m 16,1 km/h (3 Bft) 95,74 %
22.09.2018 11:46 15,9 C 16,7 C 14,4 C 70 % 1017,9 hPa 0,0 l/m 0 min 0 min 275 W/m 12,9 km/h (3 Bft) 95,92 %
22.09.2018 11:48 15,8 C 16,1 C 14,4 C 68 % 1017,9 hPa 0,0 l/m 0 min 0 min 267 W/m 9,7 km/h (2 Bft) 97,87 %
22.09.2018 11:50 15,8 C 16,1 C 14,4 C 69 % 1017,9 hPa 0,0 l/m 0 min 0 min 265 W/m 12,9 km/h (3 Bft) 95,92 %
22.09.2018 11:52 15,8 C 16,1 C 14,4 C 68 % 1017,9 hPa 0,0 l/m 0 min 0 min 257 W/m 16,1 km/h (3 Bft) 97,87 %
22.09.2018 11:54 15,8 C 16,1 C 14,4 C 68 % 1018,0 hPa 0,0 l/m 0 min 0 min 265 W/m 19,3 km/h (3 Bft) 97,87 %
22.09.2018 11:56 15,8 C 16,7 C 14,4 C 69 % 1018,0 hPa 0,0 l/m 0 min 0 min 275 W/m 9,7 km/h (2 Bft) 95,74 %
22.09.2018 11:58 15,8 C 17,2 C 15,0 C 69 % 1018,0 hPa 0,0 l/m 0 min 0 min 273 W/m 12,9 km/h (3 Bft) 97,83 %
22.09.2018 12:00 15,8 C 16,7 C 15,0 C 68 % 1018,0 hPa 0,0 l/m 0 min 0 min 270 W/m 9,7 km/h (2 Bft) 95,74 %
22.09.2018 12:02 15,8 C 16,7 C 15,0 C 68 % 1018,1 hPa 0,0 l/m 0 min 0 min 260 W/m 16,1 km/h (3 Bft) 98,00 %
22.09.2018 12:04 15,9 C 16,7 C 15,0 C 68 % 1018,0 hPa 0,0 l/m 0 min 0 min 244 W/m 12,9 km/h (3 Bft) 97,14 %
22.09.2018 12:08 15,9 C 16,7 C 15,0 C 69 % 1018,0 hPa 0,0 l/m 0 min 0 min 244 W/m 9,7 km/h (2 Bft) 97,94 %
22.09.2018 12:10 15,9 C 17,2 C 15,0 C 68 % 1018,0 hPa 0,0 l/m 0 min 0 min 244 W/m 22,5 km/h (4 Bft) 100,00 %
22.09.2018 12:12 15,9 C 17,2 C 15,0 C 68 % 1017,9 hPa 0,0 l/m 0 min 0 min 254 W/m 9,7 km/h (2 Bft) 97,83 %
22.09.2018 12:14 16,0 C 17,2 C 15,0 C 68 % 1017,8 hPa 0,0 l/m 0 min 0 min 240 W/m 12,9 km/h (3 Bft) 97,87 %
22.09.2018 12:16 16,0 C 17,2 C 15,0 C 68 % 1017,7 hPa 0,0 l/m 0 min 0 min 214 W/m 12,9 km/h (3 Bft) 97,92 %
22.09.2018 12:18 16,1 C 17,8 C 15,0 C 69 % 1017,6 hPa 0,0 l/m 0 min 0 min 198 W/m 12,9 km/h (3 Bft) 100,00 %
22.09.2018 12:20 16,1 C 18,3 C 15,0 C 69 % 1017,6 hPa 0,0 l/m 0 min 0 min 229 W/m 16,1 km/h (3 Bft) 100,00 %
22.09.2018 12:22 16,2 C 18,3 C 15,0 C 68 % 1017,7 hPa 0,0 l/m 0 min 0 min 216 W/m 12,9 km/h (3 Bft) 100,00 %
22.09.2018 12:24 16,2 C 17,8 C 15,0 C 68 % 1017,7 hPa 0,0 l/m 0 min 0 min 217 W/m 19,3 km/h (3 Bft) 89,36 %
22.09.2018 12:26 16,2 C 17,8 C 15,0 C 68 % 1017,7 hPa 0,0 l/m 0 min 0 min 293 W/m 19,3 km/h (3 Bft) 95,74 %
22.09.2018 12:28 16,3 C 18,3 C 15,0 C 69 % 1017,6 hPa 0,0 l/m 0 min 0 min 269 W/m 22,5 km/h (4 Bft) 95,74 %
22.09.2018 12:30 16,3 C 18,3 C 15,0 C 69 % 1017,7 hPa 0,0 l/m 0 min 0 min 294 W/m 19,3 km/h (3 Bft) 93,62 %
22.09.2018 12:32 16,4 C 17,8 C 15,0 C 68 % 1017,7 hPa 0,0 l/m 0 min 0 min 277 W/m 16,1 km/h (3 Bft) 97,83 %
22.09.2018 12:34 16,4 C 17,2 C 15,0 C 68 % 1017,6 hPa 0,0 l/m 0 min 0 min 270 W/m 12,9 km/h (3 Bft) 95,92 %
22.09.2018 12:36 16,4 C 16,7 C 15,0 C 68 % 1017,6 hPa 0,0 l/m 0 min 0 min 269 W/m 9,7 km/h (2 Bft) 95,74 %
22.09.2018 12:38 16,4 C 16,7 C 15,0 C 69 % 1017,7 hPa 0,0 l/m 0 min 0 min 266 W/m 9,7 km/h (2 Bft) 97,87 %
22.09.2018 12:40 16,4 C 16,7 C 15,0 C 69 % 1017,7 hPa 0,0 l/m 0 min 0 min 287 W/m 9,7 km/h (2 Bft) 98,11 %
22.09.2018 12:42 16,4 C 16,7 C 15,0 C 69 % 1017,7 hPa 0,0 l/m 0 min 0 min 291 W/m 9,7 km/h (2 Bft) 97,87 %
22.09.2018 12:44 16,4 C 17,2 C 15,6 C 69 % 1017,7 hPa 0,0 l/m 0 min 0 min 293 W/m 16,1 km/h (3 Bft) 94,74 %
22.09.2018 12:46 16,4 C 16,7 C 15,6 C 69 % 1017,6 hPa 0,0 l/m 0 min 0 min 298 W/m 12,9 km/h (3 Bft) 97,62 %
22.09.2018 12:48 16,5 C 17,2 C 15,6 C 69 % 1017,6 hPa 0,0 l/m 0 min 0 min 294 W/m 12,9 km/h (3 Bft) 98,08 %
22.09.2018 12:50 16,5 C 17,2 C 15,6 C 69 % 1017,6 hPa 0,0 l/m 0 min 0 min 286 W/m 12,9 km/h (3 Bft) 96,00 %
22.09.2018 12:52 16,5 C 17,2 C 15,6 C 69 % 1017,6 hPa 0,0 l/m 0 min 0 min 281 W/m 6,4 km/h (2 Bft) 97,87 %
22.09.2018 12:54 16,6 C 17,2 C 15,6 C 69 % 1017,6 hPa 0,0 l/m 0 min 0 min 289 W/m 12,9 km/h (3 Bft) 97,83 %
22.09.2018 12:56 16,6 C 17,2 C 15,6 C 69 % 1017,6 hPa 0,0 l/m 0 min 0 min 271 W/m 12,9 km/h (3 Bft) 97,87 %
22.09.2018 12:58 16,6 C 16,7 C 15,6 C 68 % 1017,6 hPa 0,0 l/m 0 min 0 min 259 W/m 9,7 km/h (2 Bft) 95,74 %
22.09.2018 13:00 16,6 C 16,7 C 15,6 C 68 % 1017,7 hPa 0,0 l/m 0 min 0 min 274 W/m 16,1 km/h (3 Bft) 97,96 %
22.09.2018 13:02 16,6 C 16,7 C 15,6 C 69 % 1017,7 hPa 0,0 l/m 0 min 0 min 271 W/m 12,9 km/h (3 Bft) 97,87 %
22.09.2018 13:04 16,6 C 16,7 C 15,6 C 69 % 1017,6 hPa 0,0 l/m 0 min 0 min 270 W/m 16,1 km/h (3 Bft) 97,87 %
22.09.2018 13:08 16,6 C 16,7 C 15,6 C 69 % 1017,7 hPa 0,0 l/m 0 min 0 min 241 W/m 22,5 km/h (4 Bft) 98,88 %
22.09.2018 13:10 16,5 C 16,1 C 15,6 C 69 % 1017,6 hPa 0,0 l/m 0 min 0 min 212 W/m 16,1 km/h (3 Bft) 100,00 %
22.09.2018 13:12 16,5 C 16,1 C 15,6 C 68 % 1017,6 hPa 0,0 l/m 0 min 0 min 213 W/m 9,7 km/h (2 Bft) 95,74 %
22.09.2018 13:14 16,4 C 16,1 C 15,6 C 69 % 1017,6 hPa 0,0 l/m 0 min 0 min 216 W/m 12,9 km/h (3 Bft) 100,00 %
22.09.2018 13:16 16,4 C 16,1 C 15,6 C 69 % 1017,6 hPa 0,0 l/m 0 min 0 min 222 W/m 6,4 km/h (2 Bft) 95,74 %
22.09.2018 13:18 16,4 C 16,7 C 15,6 C 69 % 1017,6 hPa 0,0 l/m 0 min 0 min 236 W/m 6,4 km/h (2 Bft) 97,83 %
22.09.2018 13:20 16,5 C 16,7 C 15,6 C 70 % 1017,6 hPa 0,0 l/m 0 min 0 min 272 W/m 6,4 km/h (2 Bft) 98,31 %
22.09.2018 13:22 16,5 C 16,7 C 15,6 C 70 % 1017,6 hPa 0,0 l/m 0 min 0 min 285 W/m 9,7 km/h (2 Bft) 100,00 %
22.09.2018 13:24 16,5 C 16,7 C 15,6 C 70 % 1017,7 hPa 0,0 l/m 0 min 0 min 288 W/m 9,7 km/h (2 Bft) 97,87 %
22.09.2018 13:26 16,6 C 16,7 C 15,6 C 70 % 1017,7 hPa 0,0 l/m 0 min 0 min 277 W/m 6,4 km/h (2 Bft) 100,00 %
22.09.2018 13:28 16,6 C 16,7 C 15,6 C 70 % 1017,6 hPa 0,0 l/m 0 min 0 min 277 W/m 22,5 km/h (4 Bft) 98,00 %
22.09.2018 13:30 16,6 C 16,7 C 15,6 C 70 % 1017,6 hPa 0,0 l/m 0 min 0 min 291 W/m 9,7 km/h (2 Bft) 97,92 %
22.09.2018 13:32 16,6 C 17,2 C 15,6 C 70 % 1017,5 hPa 0,0 l/m 2 min 0 min 374 W/m 12,9 km/h (3 Bft) 97,92 %
22.09.2018 13:34 16,6 C 17,2 C 15,6 C 69 % 1017,6 hPa 0,0 l/m 2 min 0 min 378 W/m 12,9 km/h (3 Bft) 93,62 %
22.09.2018 13:38 16,7 C 17,8 C 16,1 C 69 % 1017,5 hPa 0,0 l/m 4 min 0 min 367 W/m 9,7 km/h (2 Bft) 97,56 %
22.09.2018 13:40 16,8 C 17,8 C 16,1 C 69 % 1017,5 hPa 0,0 l/m 2 min 0 min 310 W/m 6,4 km/h (2 Bft) 97,87 %
22.09.2018 13:42 16,8 C 17,8 C 16,1 C 69 % 1017,5 hPa 0,0 l/m 0 min 0 min 288 W/m 9,7 km/h (2 Bft) 97,87 %
22.09.2018 13:44 16,9 C 17,2 C 16,1 C 69 % 1017,5 hPa 0,0 l/m 2 min 0 min 315 W/m 12,9 km/h (3 Bft) 97,87 %
22.09.2018 13:46 16,9 C 16,7 C 15,6 C 68 % 1017,5 hPa 0,0 l/m 0 min 0 min 158 W/m 9,7 km/h (2 Bft) 97,87 %
22.09.2018 13:48 16,9 C 16,1 C 15,6 C 69 % 1017,6 hPa 0,0 l/m 0 min 0 min 120 W/m 12,9 km/h (3 Bft) 97,87 %
22.09.2018 13:50 16,9 C 16,1 C 15,6 C 68 % 1017,5 hPa 0,0 l/m 0 min 0 min 94 W/m 9,7 km/h (2 Bft) 97,87 %
22.09.2018 13:52 16,8 C 16,1 C 15,6 C 69 % 1017,5 hPa 0,0 l/m 0 min 0 min 81 W/m 12,9 km/h (3 Bft) 97,87 %
22.09.2018 13:54 16,8 C 15,6 C 15,0 C 69 % 1017,6 hPa 0,0 l/m 0 min 2 min 71 W/m 9,7 km/h (2 Bft) 93,62 %
22.09.2018 13:56 16,7 C 15,0 C 15,0 C 69 % 1017,5 hPa 0,0 l/m 0 min 2 min 80 W/m 9,7 km/h (2 Bft) 97,87 %
22.09.2018 13:58 16,7 C 13,3 C 13,3 C 71 % 1017,5 hPa 0,0 l/m 0 min 2 min 101 W/m 19,3 km/h (3 Bft) 98,15 %
22.09.2018 14:00 16,6 C 12,2 C 12,2 C 72 % 1017,4 hPa 0,2 l/m 0 min 2 min 135 W/m 12,9 km/h (3 Bft) 98,00 %
22.09.2018 14:02 16,4 C 12,2 C 12,2 C 73 % 1017,3 hPa 0,0 l/m 0 min 2 min 180 W/m 12,9 km/h (3 Bft) 97,92 %
22.09.2018 14:04 16,3 C 12,2 C 12,2 C 74 % 1017,4 hPa 0,0 l/m 0 min 2 min 202 W/m 9,7 km/h (2 Bft) 97,87 %
22.09.2018 14:08 16,2 C 12,8 C 12,2 C 76 % 1017,3 hPa 0,0 l/m 0 min 0 min 205 W/m 9,7 km/h (2 Bft) 96,34 %
22.09.2018 14:10 16,1 C 12,8 C 12,2 C 76 % 1017,3 hPa 0,0 l/m 0 min 0 min 187 W/m 6,4 km/h (2 Bft) 97,83 %
22.09.2018 14:12 16,0 C 12,8 C 12,8 C 76 % 1017,3 hPa 0,0 l/m 0 min 0 min 173 W/m 6,4 km/h (2 Bft) 93,62 %
22.09.2018 14:14 15,9 C 13,3 C 12,8 C 77 % 1017,3 hPa 0,0 l/m 0 min 0 min 170 W/m 6,4 km/h (2 Bft) 97,87 %
22.09.2018 14:16 15,8 C 13,3 C 12,8 C 77 % 1017,3 hPa 0,0 l/m 0 min 0 min 177 W/m 12,9 km/h (3 Bft) 97,87 %
22.09.2018 14:18 15,8 C 13,9 C 12,8 C 77 % 1017,3 hPa 0,0 l/m 0 min 0 min 182 W/m 3,2 km/h (1 Bft) 96,23 %
22.09.2018 14:20 15,7 C 13,9 C 12,8 C 78 % 1017,3 hPa 0,0 l/m 0 min 0 min 189 W/m 9,7 km/h (2 Bft) 98,00 %
22.09.2018 14:22 15,7 C 13,9 C 13,3 C 78 % 1017,3 hPa 0,0 l/m 0 min 0 min 199 W/m 3,2 km/h (1 Bft) 97,92 %
22.09.2018 14:24 15,7 C 13,9 C 13,3 C 79 % 1017,3 hPa 0,0 l/m 0 min 0 min 219 W/m 6,4 km/h (2 Bft) 100,00 %
22.09.2018 14:26 15,7 C 14,4 C 13,3 C 78 % 1017,3 hPa 0,0 l/m 0 min 0 min 235 W/m 9,7 km/h (2 Bft) 97,83 %
22.09.2018 14:28 15,7 C 14,4 C 13,9 C 79 % 1017,4 hPa 0,0 l/m 0 min 0 min 226 W/m 6,4 km/h (2 Bft) 97,96 %
22.09.2018 14:30 15,6 C 15,0 C 13,9 C 79 % 1017,4 hPa 0,0 l/m 0 min 0 min 232 W/m 9,7 km/h (2 Bft) 95,65 %
22.09.2018 14:32 15,6 C 15,0 C 13,9 C 79 % 1017,4 hPa 0,0 l/m 0 min 0 min 226 W/m 6,4 km/h (2 Bft) 100,00 %
22.09.2018 14:34 15,7 C 15,6 C 14,4 C 79 % 1017,4 hPa 0,0 l/m 0 min 0 min 231 W/m 6,4 km/h (2 Bft) 100,00 %
22.09.2018 14:36 15,7 C 15,6 C 14,4 C 79 % 1017,4 hPa 0,0 l/m 0 min 0 min 199 W/m 6,4 km/h (2 Bft) 100,00 %
22.09.2018 14:38 15,7 C 15,6 C 14,4 C 79 % 1017,4 hPa 0,0 l/m 0 min 0 min 166 W/m 12,9 km/h (3 Bft) 97,96 %
22.09.2018 14:40 15,7 C 15,6 C 14,4 C 78 % 1017,5 hPa 0,0 l/m 0 min 0 min 150 W/m 6,4 km/h (2 Bft) 95,92 %
22.09.2018 14:42 15,7 C 15,6 C 14,4 C 78 % 1017,5 hPa 0,0 l/m 0 min 0 min 159 W/m 9,7 km/h (2 Bft) 97,83 %
22.09.2018 14:44 15,7 C 15,6 C 14,4 C 77 % 1017,5 hPa 0,0 l/m 0 min 0 min 173 W/m 6,4 km/h (2 Bft) 97,14 %
22.09.2018 14:46 15,7 C 15,6 C 14,4 C 77 % 1017,4 hPa 0,0 l/m 0 min 0 min 163 W/m 19,3 km/h (3 Bft) 95,74 %
22.09.2018 14:48 15,7 C 15,6 C 15,0 C 77 % 1017,5 hPa 0,0 l/m 0 min 0 min 147 W/m 16,1 km/h (3 Bft) 98,18 %
22.09.2018 14:50 15,7 C 15,6 C 15,0 C 76 % 1017,5 hPa 0,0 l/m 0 min 0 min 142 W/m 9,7 km/h (2 Bft) 95,92 %
22.09.2018 14:52 15,7 C 15,6 C 15,0 C 76 % 1017,5 hPa 0,0 l/m 0 min 0 min 133 W/m 9,7 km/h (2 Bft) 97,87 %
22.09.2018 14:54 15,7 C 15,6 C 14,4 C 75 % 1017,5 hPa 0,0 l/m 0 min 0 min 141 W/m 6,4 km/h (2 Bft) 97,87 %
22.09.2018 14:56 15,7 C 15,6 C 14,4 C 75 % 1017,6 hPa 0,0 l/m 0 min 0 min 147 W/m 12,9 km/h (3 Bft) 95,83 %
22.09.2018 14:58 15,7 C 15,6 C 14,4 C 75 % 1017,5 hPa 0,0 l/m 0 min 0 min 142 W/m 16,1 km/h (3 Bft) 95,74 %
22.09.2018 15:00 15,7 C 15,6 C 14,4 C 76 % 1017,6 hPa 0,0 l/m 0 min 0 min 144 W/m 19,3 km/h (3 Bft) 97,87 %
22.09.2018 15:02 15,7 C 15,6 C 15,0 C 75 % 1017,6 hPa 0,0 l/m 0 min 0 min 150 W/m 9,7 km/h (2 Bft) 97,92 %
22.09.2018 15:04 15,7 C 15,6 C 15,0 C 75 % 1017,6 hPa 0,0 l/m 0 min 0 min 144 W/m 9,7 km/h (2 Bft) 94,44 %
22.09.2018 15:08 15,7 C 15,0 C 14,4 C 75 % 1017,6 hPa 0,0 l/m 0 min 4 min 127 W/m 29,0 km/h (5 Bft) 94,00 %
22.09.2018 15:10 15,7 C 14,4 C 14,4 C 75 % 1017,5 hPa 0,0 l/m 0 min 2 min 102 W/m 25,7 km/h (4 Bft) 96,00 %
22.09.2018 15:12 15,6 C 13,9 C 14,4 C 74 % 1017,7 hPa 0,0 l/m 0 min 2 min 105 W/m 12,9 km/h (3 Bft) 94,59 %
22.09.2018 15:14 15,4 C 13,9 C 13,9 C 74 % 1017,8 hPa 0,0 l/m 0 min 2 min 120 W/m 12,9 km/h (3 Bft) 95,74 %
22.09.2018 15:16 15,4 C 13,3 C 13,3 C 75 % 1017,8 hPa 0,0 l/m 0 min 2 min 145 W/m 16,1 km/h (3 Bft) 95,83 %
22.09.2018 15:18 15,2 C 13,3 C 13,3 C 75 % 1017,7 hPa 0,0 l/m 0 min 2 min 160 W/m 25,7 km/h (4 Bft) 95,65 %
22.09.2018 15:20 15,1 C 13,3 C 13,3 C 75 % 1017,5 hPa 0,0 l/m 0 min 2 min 155 W/m 19,3 km/h (3 Bft) 95,74 %
22.09.2018 15:22 14,9 C 13,3 C 13,3 C 74 % 1017,6 hPa 0,0 l/m 0 min 2 min 150 W/m 22,5 km/h (4 Bft) 95,74 %
22.09.2018 15:24 14,7 C 13,3 C 13,3 C 74 % 1017,6 hPa 0,0 l/m 0 min 2 min 155 W/m 12,9 km/h (3 Bft) 95,74 %
22.09.2018 15:26 14,6 C 13,3 C 13,3 C 75 % 1017,6 hPa 0,0 l/m 0 min 2 min 161 W/m 16,1 km/h (3 Bft) 94,44 %
22.09.2018 15:28 14,5 C 13,9 C 13,3 C 75 % 1017,5 hPa 0,0 l/m 0 min 2 min 168 W/m 16,1 km/h (3 Bft) 94,00 %
22.09.2018 15:30 14,4 C 13,9 C 13,3 C 76 % 1017,6 hPa 0,0 l/m 0 min 2 min 173 W/m 12,9 km/h (3 Bft) 97,22 %
22.09.2018 15:32 14,4 C 13,9 C 13,3 C 76 % 1017,5 hPa 0,0 l/m 0 min 0 min 172 W/m 12,9 km/h (3 Bft) 91,49 %
22.09.2018 15:34 14,2 C 13,3 C 13,3 C 76 % 1017,7 hPa 0,0 l/m 0 min 2 min 167 W/m 19,3 km/h (3 Bft) 95,74 %
22.09.2018 15:38 14,2 C 13,3 C 12,8 C 76 % 1017,8 hPa 0,0 l/m 0 min 4 min 139 W/m 12,9 km/h (3 Bft) 97,03 %
22.09.2018 15:40 14,2 C 12,8 C 12,8 C 77 % 1017,9 hPa 0,0 l/m 0 min 2 min 112 W/m 16,1 km/h (3 Bft) 97,87 %
22.09.2018 15:42 14,2 C 12,8 C 12,8 C 78 % 1017,9 hPa 0,0 l/m 0 min 2 min 98 W/m 9,7 km/h (2 Bft) 96,00 %
22.09.2018 15:44 14,2 C 12,2 C 12,8 C 78 % 1017,9 hPa 0,0 l/m 0 min 2 min 88 W/m 9,7 km/h (2 Bft) 97,87 %
22.09.2018 15:46 14,1 C 12,2 C 12,8 C 78 % 1017,8 hPa 0,0 l/m 0 min 2 min 83 W/m 12,9 km/h (3 Bft) 97,22 %
22.09.2018 15:48 14,0 C 12,2 C 12,2 C 79 % 1017,8 hPa 0,0 l/m 0 min 2 min 80 W/m 9,7 km/h (2 Bft) 97,87 %
22.09.2018 15:50 14,0 C 12,2 C 12,2 C 79 % 1017,9 hPa 0,0 l/m 0 min 2 min 76 W/m 9,7 km/h (2 Bft) 97,87 %
22.09.2018 15:52 13,9 C 11,7 C 12,2 C 79 % 1017,8 hPa 0,0 l/m 0 min 2 min 70 W/m 6,4 km/h (2 Bft) 100,00 %
22.09.2018 15:54 13,9 C 12,2 C 12,2 C 79 % 1017,8 hPa 0,0 l/m 0 min 2 min 68 W/m 6,4 km/h (2 Bft) 100,00 %
22.09.2018 15:56 13,8 C 12,2 C 12,2 C 79 % 1017,8 hPa 0,0 l/m 0 min 2 min 65 W/m 9,7 km/h (2 Bft) 100,00 %
22.09.2018 15:58 13,8 C 12,2 C 12,2 C 79 % 1017,8 hPa 0,0 l/m 0 min 0 min 63 W/m 12,9 km/h (3 Bft) 97,87 %
22.09.2018 16:00 13,7 C 12,2 C 12,2 C 80 % 1017,8 hPa 0,0 l/m 0 min 0 min 66 W/m 12,9 km/h (3 Bft) 100,00 %
22.09.2018 16:02 13,6 C 12,2 C 12,8 C 80 % 1017,8 hPa 0,0 l/m 0 min 0 min 69 W/m 16,1 km/h (3 Bft) 100,00 %
22.09.2018 16:04 13,6 C 12,2 C 12,8 C 80 % 1017,6 hPa 0,0 l/m 0 min 0 min 75 W/m 16,1 km/h (3 Bft) 100,00 %
22.09.2018 16:08 13,5 C 12,8 C 12,8 C 80 % 1017,6 hPa 0,0 l/m 0 min 0 min 78 W/m 9,7 km/h (2 Bft) 99,05 %
22.09.2018 16:10 13,4 C 12,8 C 12,8 C 80 % 1017,5 hPa 0,0 l/m 0 min 0 min 82 W/m 9,7 km/h (2 Bft) 100,00 %
22.09.2018 16:12 13,4 C 12,8 C 12,8 C 81 % 1017,4 hPa 0,0 l/m 0 min 0 min 101 W/m 6,4 km/h (2 Bft) 100,00 %
22.09.2018 16:14 13,4 C 12,8 C 12,8 C 81 % 1017,3 hPa 0,0 l/m 0 min 0 min 122 W/m 9,7 km/h (2 Bft) 100,00 %
22.09.2018 16:16 13,4 C 12,8 C 12,8 C 81 % 1017,3 hPa 0,0 l/m 0 min 2 min 126 W/m 9,7 km/h (2 Bft) 97,87 %
22.09.2018 16:18 13,4 C 12,8 C 12,8 C 81 % 1017,2 hPa 0,0 l/m 0 min 0 min 129 W/m 9,7 km/h (2 Bft) 100,00 %
22.09.2018 16:20 13,4 C 13,3 C 12,8 C 81 % 1017,2 hPa 0,0 l/m 0 min 2 min 136 W/m 9,7 km/h (2 Bft) 100,00 %
22.09.2018 16:22 13,4 C 13,3 C 12,8 C 81 % 1017,3 hPa 0,0 l/m 0 min 2 min 147 W/m 9,7 km/h (2 Bft) 100,00 %
22.09.2018 16:24 13,4 C 12,8 C 12,8 C 82 % 1017,2 hPa 0,0 l/m 0 min 0 min 142 W/m 6,4 km/h (2 Bft) 100,00 %
22.09.2018 16:26 13,4 C 12,8 C 12,8 C 82 % 1017,3 hPa 0,0 l/m 0 min 2 min 140 W/m 6,4 km/h (2 Bft) 100,00 %
22.09.2018 16:28 13,4 C 12,8 C 12,8 C 82 % 1017,3 hPa 0,0 l/m 0 min 2 min 149 W/m 9,7 km/h (2 Bft) 100,00 %
22.09.2018 16:30 13,4 C 13,3 C 12,8 C 82 % 1017,3 hPa 0,0 l/m 0 min 0 min 150 W/m 9,7 km/h (2 Bft) 97,83 %
22.09.2018 16:32 13,5 C 13,3 C 12,8 C 82 % 1017,3 hPa 0,0 l/m 0 min 0 min 154 W/m 9,7 km/h (2 Bft) 95,74 %
22.09.2018 16:34 13,5 C 13,3 C 12,8 C 82 % 1017,3 hPa 0,0 l/m 0 min 0 min 161 W/m 12,9 km/h (3 Bft) 100,00 %
22.09.2018 16:36 13,6 C 13,3 C 12,8 C 82 % 1017,4 hPa 0,0 l/m 0 min 0 min 143 W/m 9,7 km/h (2 Bft) 98,15 %
22.09.2018 16:38 13,6 C 13,3 C 12,8 C 82 % 1017,4 hPa 0,0 l/m 0 min 2 min 162 W/m 12,9 km/h (3 Bft) 97,87 %
22.09.2018 16:40 13,6 C 13,3 C 12,8 C 82 % 1017,4 hPa 0,0 l/m 0 min 0 min 190 W/m 6,4 km/h (2 Bft) 100,00 %
22.09.2018 16:42 13,6 C 13,9 C 13,3 C 83 % 1017,4 hPa 0,0 l/m 0 min 2 min 181 W/m 12,9 km/h (3 Bft) 95,74 %
22.09.2018 16:44 13,7 C 13,3 C 13,3 C 83 % 1017,4 hPa 0,0 l/m 0 min 2 min 157 W/m 9,7 km/h (2 Bft) 100,00 %
22.09.2018 16:46 13,7 C 13,3 C 12,8 C 83 % 1017,6 hPa 0,0 l/m 0 min 2 min 141 W/m 12,9 km/h (3 Bft) 97,83 %
22.09.2018 16:48 13,7 C 13,3 C 12,8 C 83 % 1017,4 hPa 0,0 l/m 0 min 2 min 143 W/m 12,9 km/h (3 Bft) 100,00 %
22.09.2018 16:50 13,7 C 13,3 C 12,8 C 83 % 1017,5 hPa 0,0 l/m 0 min 2 min 143 W/m 9,7 km/h (2 Bft) 100,00 %
22.09.2018 16:52 13,7 C 13,3 C 12,8 C 83 % 1017,4 hPa 0,0 l/m 0 min 2 min 144 W/m 3,2 km/h (1 Bft) 100,00 %
22.09.2018 16:54 13,7 C 12,8 C 12,8 C 83 % 1017,4 hPa 0,0 l/m 0 min 2 min 137 W/m 16,1 km/h (3 Bft) 100,00 %
22.09.2018 16:56 13,7 C 13,3 C 12,8 C 83 % 1017,4 hPa 0,0 l/m 0 min 2 min 118 W/m 9,7 km/h (2 Bft) 97,87 %
22.09.2018 16:58 13,7 C 12,8 C 12,8 C 83 % 1017,4 hPa 0,0 l/m 0 min 2 min 103 W/m 6,4 km/h (2 Bft) 100,00 %
22.09.2018 17:00 13,7 C 12,8 C 12,8 C 83 % 1017,4 hPa 0,0 l/m 0 min 2 min 93 W/m 6,4 km/h (2 Bft) 100,00 %
22.09.2018 17:02 13,7 C 12,8 C 12,8 C 83 % 1017,3 hPa 0,0 l/m 0 min 2 min 82 W/m 9,7 km/h (2 Bft) 100,00 %
22.09.2018 17:04 13,7 C 12,8 C 12,8 C 83 % 1017,3 hPa 0,0 l/m 0 min 2 min 79 W/m 9,7 km/h (2 Bft) 97,92 %
22.09.2018 17:08 13,7 C 12,8 C 12,8 C 83 % 1017,2 hPa 0,0 l/m 0 min 4 min 78 W/m 16,1 km/h (3 Bft) 97,87 %
22.09.2018 17:10 13,7 C 12,8 C 12,8 C 83 % 1017,2 hPa 0,0 l/m 0 min 2 min 84 W/m 12,9 km/h (3 Bft) 97,87 %
22.09.2018 17:12 13,6 C 12,8 C 12,8 C 83 % 1017,2 hPa 0,0 l/m 0 min 2 min 82 W/m 12,9 km/h (3 Bft) 95,74 %
22.09.2018 17:14 13,6 C 12,8 C 12,8 C 83 % 1017,2 hPa 0,0 l/m 0 min 2 min 77 W/m 12,9 km/h (3 Bft) 98,15 %
22.09.2018 17:16 13,6 C 12,8 C 12,8 C 84 % 1017,2 hPa 0,0 l/m 0 min 2 min 77 W/m 9,7 km/h (2 Bft) 97,37 %
22.09.2018 17:18 13,6 C 12,8 C 12,8 C 84 % 1017,3 hPa 0,0 l/m 0 min 0 min 72 W/m 6,4 km/h (2 Bft) 100,00 %
22.09.2018 17:20 13,6 C 12,8 C 12,8 C 84 % 1017,2 hPa 0,0 l/m 0 min 0 min 72 W/m 6,4 km/h (2 Bft) 97,87 %
22.09.2018 17:22 13,6 C 12,8 C 12,8 C 85 % 1017,2 hPa 0,0 l/m 0 min 0 min 73 W/m 9,7 km/h (2 Bft) 95,74 %
22.09.2018 17:24 13,6 C 12,8 C 12,8 C 85 % 1017,2 hPa 0,0 l/m 0 min 0 min 65 W/m 6,4 km/h (2 Bft) 97,87 %
22.09.2018 17:26 13,6 C 12,8 C 12,8 C 85 % 1017,2 hPa 0,0 l/m 0 min 2 min 59 W/m 9,7 km/h (2 Bft) 92,86 %
22.09.2018 17:28 13,5 C 12,8 C 12,8 C 85 % 1017,3 hPa 0,0 l/m 0 min 2 min 64 W/m 3,2 km/h (1 Bft) 97,87 %
22.09.2018 17:30 13,5 C 12,2 C 12,8 C 85 % 1017,3 hPa 0,0 l/m 0 min 2 min 78 W/m 6,4 km/h (2 Bft) 95,74 %
22.09.2018 17:32 13,5 C 12,2 C 12,8 C 85 % 1017,2 hPa 0,0 l/m 0 min 2 min 78 W/m 9,7 km/h (2 Bft) 95,24 %
22.09.2018 17:34 13,5 C 11,7 C 12,2 C 85 % 1017,3 hPa 0,0 l/m 0 min 2 min 63 W/m 6,4 km/h (2 Bft) 93,62 %
22.09.2018 17:36 13,5 C 11,7 C 12,2 C 85 % 1017,4 hPa 0,0 l/m 0 min 2 min 53 W/m 3,2 km/h (1 Bft) 96,36 %
22.09.2018 17:38 13,5 C 11,1 C 11,7 C 85 % 1017,4 hPa 0,0 l/m 0 min 2 min 57 W/m 6,4 km/h (2 Bft) 98,00 %
22.09.2018 17:40 13,4 C 11,1 C 11,7 C 85 % 1017,2 hPa 0,0 l/m 0 min 2 min 71 W/m 9,7 km/h (2 Bft) 95,74 %
22.09.2018 17:42 13,4 C 11,1 C 11,7 C 86 % 1017,2 hPa 0,0 l/m 0 min 2 min 86 W/m 9,7 km/h (2 Bft) 100,00 %
22.09.2018 17:44 13,4 C 11,1 C 11,1 C 86 % 1017,2 hPa 0,2 l/m 0 min 2 min 89 W/m 12,9 km/h (3 Bft) 94,64 %
22.09.2018 17:46 13,4 C 11,1 C 11,1 C 86 % 1017,4 hPa 0,0 l/m 0 min 2 min 77 W/m 9,7 km/h (2 Bft) 95,65 %
22.09.2018 17:48 13,3 C 11,1 C 11,1 C 86 % 1017,2 hPa 0,0 l/m 0 min 2 min 62 W/m 9,7 km/h (2 Bft) 95,74 %
22.09.2018 17:50 13,3 C 10,6 C 11,1 C 86 % 1017,2 hPa 0,0 l/m 0 min 2 min 50 W/m 12,9 km/h (3 Bft) 97,87 %
22.09.2018 17:52 13,2 C 10,6 C 11,1 C 86 % 1017,3 hPa 0,0 l/m 0 min 2 min 44 W/m 12,9 km/h (3 Bft) 95,83 %
22.09.2018 17:54 13,2 C 10,6 C 11,1 C 86 % 1017,4 hPa 0,0 l/m 0 min 2 min 43 W/m 6,4 km/h (2 Bft) 93,62 %
22.09.2018 17:56 13,1 C 10,6 C 11,1 C 86 % 1017,4 hPa 0,0 l/m 0 min 2 min 36 W/m 6,4 km/h (2 Bft) 93,62 %
22.09.2018 17:58 13,1 C 10,6 C 10,6 C 85 % 1017,4 hPa 0,0 l/m 0 min 2 min 29 W/m 6,4 km/h (2 Bft) 93,48 %
22.09.2018 18:00 13,1 C 10,6 C 11,1 C 86 % 1017,4 hPa 0,0 l/m 0 min 2 min 29 W/m 3,2 km/h (1 Bft) 93,62 %
22.09.2018 18:02 13,0 C 10,6 C 10,6 C 86 % 1017,4 hPa 0,0 l/m 0 min 2 min 31 W/m 9,7 km/h (2 Bft) 89,36 %
22.09.2018 18:04 12,9 C 10,6 C 10,6 C 86 % 1017,5 hPa 0,0 l/m 0 min 2 min 27 W/m 6,4 km/h (2 Bft) 94,00 %
22.09.2018 18:07 12,8 C 10,6 C 10,6 C 86 % 1017,3 hPa 0,0 l/m 0 min 3 min 23 W/m 3,2 km/h (1 Bft) 94,00 %
22.09.2018 18:08 12,8 C 10,6 C 10,6 C 86 % 1017,3 hPa 0,0 l/m 0 min 1 min 24 W/m 3,2 km/h (1 Bft) 92,63 %
22.09.2018 18:10 12,8 C 10,6 C 10,6 C 86 % 1017,2 hPa 0,0 l/m 0 min 2 min 21 W/m 6,4 km/h (2 Bft) 95,65 %
22.09.2018 18:12 12,8 C 10,0 C 10,6 C 86 % 1017,2 hPa 0,0 l/m 0 min 2 min 21 W/m 6,4 km/h (2 Bft) 91,49 %
22.09.2018 18:14 12,7 C 10,0 C 10,6 C 86 % 1017,1 hPa 0,0 l/m 0 min 2 min 20 W/m 0,0 km/h (0 Bft) 91,49 %
22.09.2018 18:16 12,7 C 10,0 C 10,6 C 86 % 1017,1 hPa 0,0 l/m 0 min 2 min 19 W/m 3,2 km/h (1 Bft) 95,74 %
22.09.2018 18:18 12,6 C 10,0 C 10,6 C 86 % 1017,1 hPa 0,0 l/m 0 min 2 min 21 W/m 3,2 km/h (1 Bft) 93,62 %
22.09.2018 18:20 12,6 C 10,0 C 10,6 C 86 % 1017,2 hPa 0,2 l/m 0 min 2 min 24 W/m 3,2 km/h (1 Bft) 95,65 %
22.09.2018 18:22 12,6 C 10,0 C 10,6 C 86 % 1017,2 hPa 0,0 l/m 0 min 2 min 21 W/m 3,2 km/h (1 Bft) 95,74 %
22.09.2018 18:24 12,6 C 10,0 C 10,6 C 86 % 1017,1 hPa 0,0 l/m 0 min 2 min 18 W/m 9,7 km/h (2 Bft) 93,62 %
22.09.2018 18:26 12,5 C 10,0 C 10,6 C 86 % 1017,1 hPa 0,0 l/m 0 min 2 min 16 W/m 6,4 km/h (2 Bft) 95,74 %
22.09.2018 18:28 12,5 C 10,0 C 10,6 C 87 % 1017,1 hPa 0,0 l/m 0 min 2 min 16 W/m 3,2 km/h (1 Bft) 95,74 %
22.09.2018 18:30 12,4 C 10,0 C 10,6 C 87 % 1017,0 hPa 0,0 l/m 0 min 2 min 16 W/m 3,2 km/h (1 Bft) 95,74 %
22.09.2018 18:32 12,4 C 10,0 C 10,6 C 87 % 1017,0 hPa 0,0 l/m 0 min 2 min 17 W/m 6,4 km/h (2 Bft) 95,65 %
22.09.2018 18:34 12,4 C 10,0 C 10,6 C 87 % 1017,0 hPa 0,0 l/m 0 min 2 min 18 W/m 3,2 km/h (1 Bft) 95,74 %
22.09.2018 18:38 12,3 C 10,0 C 10,6 C 87 % 1017,1 hPa 0,0 l/m 0 min 4 min 21 W/m 3,2 km/h (1 Bft) 97,89 %
22.09.2018 18:40 12,3 C 10,0 C 10,6 C 87 % 1017,0 hPa 0,0 l/m 0 min 2 min 24 W/m 0,0 km/h (0 Bft) 97,87 %
22.09.2018 18:42 12,3 C 10,0 C 10,6 C 87 % 1017,0 hPa 0,0 l/m 0 min 2 min 17 W/m 0,0 km/h (0 Bft) 97,87 %
22.09.2018 18:44 12,3 C 10,0 C 10,6 C 87 % 1017,0 hPa 0,2 l/m 0 min 2 min 14 W/m 0,0 km/h (0 Bft) 97,83 %
22.09.2018 18:46 12,3 C 10,0 C 10,6 C 88 % 1017,0 hPa 0,0 l/m 0 min 2 min 15 W/m 9,7 km/h (2 Bft) 97,87 %
22.09.2018 18:48 12,2 C 10,0 C 10,6 C 88 % 1016,9 hPa 0,0 l/m 0 min 2 min 19 W/m 0,0 km/h (0 Bft) 97,87 %
22.09.2018 18:50 12,2 C 10,0 C 10,6 C 88 % 1016,8 hPa 0,0 l/m 0 min 2 min 23 W/m 6,4 km/h (2 Bft) 97,87 %
22.09.2018 18:52 12,2 C 10,0 C 10,6 C 88 % 1016,9 hPa 0,0 l/m 0 min 2 min 20 W/m 0,0 km/h (0 Bft) 100,00 %
22.09.2018 18:54 12,2 C 10,0 C 10,6 C 88 % 1016,9 hPa 0,0 l/m 0 min 2 min 17 W/m 0,0 km/h (0 Bft) 100,00 %
22.09.2018 18:56 12,2 C 10,0 C 10,6 C 88 % 1016,8 hPa 0,0 l/m 0 min 2 min 18 W/m 3,2 km/h (1 Bft) 100,00 %
22.09.2018 18:58 12,2 C 10,0 C 10,6 C 89 % 1016,7 hPa 0,0 l/m 0 min 2 min 19 W/m 3,2 km/h (1 Bft) 97,87 %
22.09.2018 19:00 12,2 C 10,0 C 10,6 C 89 % 1016,8 hPa 0,0 l/m 0 min 2 min 17 W/m 3,2 km/h (1 Bft) 100,00 %
22.09.2018 19:02 12,1 C 10,0 C 10,6 C 89 % 1016,8 hPa 0,0 l/m 0 min 2 min 12 W/m 3,2 km/h (1 Bft) 97,87 %
22.09.2018 19:04 12,1 C 10,0 C 10,6 C 89 % 1016,7 hPa 0,0 l/m 0 min 2 min 12 W/m 3,2 km/h (1 Bft) 97,87 %
22.09.2018 19:08 12,1 C 10,6 C 10,6 C 89 % 1016,7 hPa 0,0 l/m 0 min 4 min 12 W/m 0,0 km/h (0 Bft) 98,80 %
22.09.2018 19:10 12,1 C 10,0 C 10,6 C 89 % 1016,8 hPa 0,2 l/m 0 min 2 min 13 W/m 3,2 km/h (1 Bft) 100,00 %
22.09.2018 19:12 12,1 C 10,0 C 10,6 C 90 % 1016,7 hPa 0,0 l/m 0 min 2 min 15 W/m 3,2 km/h (1 Bft) 100,00 %
22.09.2018 19:14 12,0 C 10,0 C 10,6 C 90 % 1016,7 hPa 0,0 l/m 0 min 2 min 14 W/m 6,4 km/h (2 Bft) 100,00 %
22.09.2018 19:16 12,0 C 10,0 C 10,6 C 90 % 1016,7 hPa 0,0 l/m 0 min 2 min 15 W/m 3,2 km/h (1 Bft) 100,00 %
22.09.2018 19:18 12,0 C 10,0 C 10,6 C 90 % 1016,6 hPa 0,0 l/m 0 min 2 min 16 W/m 3,2 km/h (1 Bft) 100,00 %
22.09.2018 19:20 12,0 C 10,0 C 10,6 C 90 % 1016,6 hPa 0,0 l/m 0 min 2 min 13 W/m 0,0 km/h (0 Bft) 100,00 %
22.09.2018 19:22 12,0 C 10,0 C 10,6 C 90 % 1016,7 hPa 0,0 l/m 0 min 2 min 10 W/m 6,4 km/h (2 Bft) 97,87 %
22.09.2018 19:24 11,9 C 10,0 C 10,6 C 90 % 1016,7 hPa 0,0 l/m 0 min 2 min 7 W/m 6,4 km/h (2 Bft) 100,00 %
22.09.2018 19:26 11,9 C 10,0 C 10,6 C 91 % 1016,6 hPa 0,0 l/m 0 min 2 min 5 W/m 3,2 km/h (1 Bft) 100,00 %
22.09.2018 19:28 11,9 C 10,0 C 10,6 C 91 % 1016,6 hPa 0,0 l/m 0 min 2 min 4 W/m 9,7 km/h (2 Bft) 100,00 %
22.09.2018 19:30 11,9 C 10,0 C 10,6 C 91 % 1016,6 hPa 0,0 l/m 0 min 2 min 0 W/m 3,2 km/h (1 Bft) 100,00 %
22.09.2018 19:32 11,9 C 10,0 C 10,6 C 91 % 1016,6 hPa 0,0 l/m 0 min 2 min 0 W/m 6,4 km/h (2 Bft) 100,00 %
22.09.2018 19:34 11,8 C 10,0 C 10,6 C 91 % 1016,6 hPa 0,0 l/m 0 min 2 min 0 W/m 3,2 km/h (1 Bft) 95,74 %
22.09.2018 19:38 11,8 C 10,0 C 10,6 C 91 % 1016,7 hPa 0,0 l/m 0 min 4 min 0 W/m 3,2 km/h (1 Bft) 96,77 %
22.09.2018 19:40 11,8 C 10,0 C 10,6 C 91 % 1016,8 hPa 0,0 l/m 0 min 2 min 0 W/m 6,4 km/h (2 Bft) 100,00 %
22.09.2018 19:42 11,7 C 10,0 C 10,0 C 91 % 1016,9 hPa 0,0 l/m 0 min 2 min 0 W/m 12,9 km/h (3 Bft) 100,00 %
22.09.2018 19:44 11,7 C 10,0 C 10,0 C 91 % 1016,9 hPa 0,0 l/m 0 min 2 min 0 W/m 3,2 km/h (1 Bft) 100,00 %
22.09.2018 19:46 11,7 C 10,0 C 10,6 C 91 % 1016,9 hPa 0,0 l/m 0 min 2 min 0 W/m 3,2 km/h (1 Bft) 100,00 %
22.09.2018 19:48 11,7 C 10,0 C 10,0 C 91 % 1016,9 hPa 0,0 l/m 0 min 2 min 0 W/m 3,2 km/h (1 Bft) 100,00 %
22.09.2018 19:50 11,7 C 10,0 C 10,0 C 91 % 1016,9 hPa 0,0 l/m 0 min 0 min 0 W/m 3,2 km/h (1 Bft) 100,00 %
22.09.2018 19:52 11,7 C 10,0 C 10,0 C 91 % 1016,9 hPa 0,0 l/m 0 min 2 min 0 W/m 0,0 km/h (0 Bft) 100,00 %
22.09.2018 19:54 11,7 C 10,0 C 10,6 C 91 % 1016,9 hPa 0,0 l/m 0 min 2 min 0 W/m 6,4 km/h (2 Bft) 100,00 %
22.09.2018 19:56 11,6 C 10,0 C 10,0 C 91 % 1016,9 hPa 0,0 l/m 0 min 2 min 0 W/m 3,2 km/h (1 Bft) 100,00 %
22.09.2018 19:58 11,6 C 10,0 C 10,0 C 92 % 1016,8 hPa 0,0 l/m 0 min 2 min 0 W/m 3,2 km/h (1 Bft) 100,00 %
22.09.2018 20:00 11,6 C 10,0 C 10,6 C 91 % 1016,8 hPa 0,0 l/m 0 min 2 min 0 W/m 3,2 km/h (1 Bft) 100,00 %
22.09.2018 20:02 11,6 C 10,0 C 10,6 C 91 % 1016,9 hPa 0,0 l/m 0 min 2 min 0 W/m 12,9 km/h (3 Bft) 100,00 %
22.09.2018 20:04 11,6 C 10,0 C 10,6 C 91 % 1016,9 hPa 0,0 l/m 0 min 2 min 0 W/m 3,2 km/h (1 Bft) 100,00 %
22.09.2018 20:08 11,6 C 10,0 C 10,0 C 92 % 1016,9 hPa 0,2 l/m 0 min 4 min 0 W/m 9,7 km/h (2 Bft) 100,00 %
22.09.2018 20:10 11,6 C 10,0 C 10,0 C 92 % 1016,9 hPa 0,0 l/m 0 min 2 min 0 W/m 3,2 km/h (1 Bft) 97,83 %
22.09.2018 20:12 11,6 C 10,0 C 10,0 C 92 % 1016,9 hPa 0,0 l/m 0 min 2 min 0 W/m 0,0 km/h (0 Bft) 95,74 %
22.09.2018 20:14 11,6 C 10,0 C 10,6 C 92 % 1016,8 hPa 0,0 l/m 0 min 2 min 0 W/m 3,2 km/h (1 Bft) 100,00 %
22.09.2018 20:16 11,6 C 10,0 C 10,6 C 92 % 1016,9 hPa 0,0 l/m 0 min 2 min 0 W/m 0,0 km/h (0 Bft) 100,00 %
22.09.2018 20:18 11,6 C 10,0 C 10,6 C 92 % 1016,9 hPa 0,0 l/m 0 min 0 min 0 W/m 3,2 km/h (1 Bft) 100,00 %
22.09.2018 20:20 11,6 C 10,0 C 10,6 C 92 % 1016,9 hPa 0,0 l/m 0 min 0 min 0 W/m 3,2 km/h (1 Bft) 95,74 %
22.09.2018 20:22 11,6 C 10,0 C 10,6 C 92 % 1017,0 hPa 0,0 l/m 0 min 2 min 0 W/m 0,0 km/h (0 Bft) 97,83 %
22.09.2018 20:24 11,6 C 10,0 C 10,6 C 92 % 1017,0 hPa 0,0 l/m 0 min 2 min 0 W/m 0,0 km/h (0 Bft) 100,00 %
22.09.2018 20:26 11,6 C 10,0 C 10,0 C 92 % 1016,9 hPa 0,0 l/m 0 min 2 min 0 W/m 0,0 km/h (0 Bft) 97,87 %
22.09.2018 20:28 11,5 C 10,0 C 10,0 C 92 % 1017,0 hPa 0,0 l/m 0 min 0 min 0 W/m 0,0 km/h (0 Bft) 97,87 %
22.09.2018 20:30 11,5 C 10,0 C 10,6 C 92 % 1017,0 hPa 0,0 l/m 0 min 2 min 0 W/m 0,0 km/h (0 Bft) 97,87 %
22.09.2018 20:32 11,5 C 10,0 C 10,6 C 92 % 1017,0 hPa 0,0 l/m 0 min 2 min 0 W/m 0,0 km/h (0 Bft) 97,87 %
22.09.2018 20:34 11,5 C 10,0 C 10,0 C 92 % 1017,0 hPa 0,0 l/m 0 min 2 min 0 W/m 0,0 km/h (0 Bft) 95,65 %
22.09.2018 20:38 11,5 C 10,0 C 10,0 C 92 % 1016,9 hPa 0,0 l/m 0 min 4 min 0 W/m 0,0 km/h (0 Bft) 97,03 %
22.09.2018 20:40 11,6 C 10,0 C 10,0 C 92 % 1016,9 hPa 0,0 l/m 0 min 2 min 0 W/m 0,0 km/h (0 Bft) 95,65 %
22.09.2018 20:42 11,6 C 10,0 C 10,6 C 92 % 1016,9 hPa 0,0 l/m 0 min 2 min 0 W/m 0,0 km/h (0 Bft) 95,74 %
22.09.2018 20:44 11,6 C 10,0 C 10,0 C 93 % 1016,9 hPa 0,0 l/m 0 min 2 min 0 W/m 0,0 km/h (0 Bft) 97,87 %
22.09.2018 20:46 11,6 C 10,0 C 10,0 C 93 % 1017,0 hPa 0,0 l/m 0 min 2 min 0 W/m 0,0 km/h (0 Bft) 97,62 %
22.09.2018 20:48 11,5 C 10,0 C 10,0 C 93 % 1017,0 hPa 0,0 l/m 0 min 2 min 0 W/m 3,2 km/h (1 Bft) 100,00 %
22.09.2018 20:50 11,5 C 10,0 C 10,0 C 93 % 1017,0 hPa 0,0 l/m 0 min 2 min 0 W/m 6,4 km/h (2 Bft) 95,74 %
22.09.2018 20:52 11,5 C 10,0 C 10,0 C 93 % 1017,1 hPa 0,0 l/m 0 min 2 min 0 W/m 3,2 km/h (1 Bft) 97,87 %
22.09.2018 20:54 11,5 C 10,0 C 10,0 C 93 % 1017,1 hPa 0,0 l/m 0 min 2 min 0 W/m 3,2 km/h (1 Bft) 97,87 %
22.09.2018 20:56 11,5 C 10,0 C 10,0 C 93 % 1017,1 hPa 0,0 l/m 0 min 2 min 0 W/m 3,2 km/h (1 Bft) 97,83 %
22.09.2018 20:58 11,4 C 10,0 C 10,0 C 93 % 1017,1 hPa 0,0 l/m 0 min 2 min 0 W/m 3,2 km/h (1 Bft) 95,74 %
22.09.2018 21:00 11,4 C 10,0 C 10,0 C 93 % 1017,1 hPa 0,0 l/m 0 min 2 min 0 W/m 3,2 km/h (1 Bft) 95,74 %
22.09.2018 21:02 11,4 C 10,0 C 10,0 C 93 % 1017,1 hPa 0,0 l/m 0 min 2 min 0 W/m 0,0 km/h (0 Bft) 93,75 %
22.09.2018 21:04 11,4 C 10,0 C 10,0 C 93 % 1017,1 hPa 0,0 l/m 0 min 2 min 0 W/m 3,2 km/h (1 Bft) 95,74 %
22.09.2018 21:08 11,4 C 10,0 C 10,0 C 93 % 1017,1 hPa 0,0 l/m 0 min 4 min 0 W/m 0,0 km/h (0 Bft) 97,85 %
22.09.2018 21:10 11,4 C 10,0 C 10,0 C 93 % 1017,1 hPa 0,0 l/m 0 min 2 min 0 W/m 0,0 km/h (0 Bft) 97,87 %
22.09.2018 21:12 11,4 C 10,0 C 10,0 C 93 % 1017,2 hPa 0,0 l/m 0 min 2 min 0 W/m 0,0 km/h (0 Bft) 93,62 %
22.09.2018 21:14 11,4 C 10,0 C 10,0 C 93 % 1017,1 hPa 0,0 l/m 0 min 2 min 0 W/m 0,0 km/h (0 Bft) 97,87 %
22.09.2018 21:16 11,4 C 10,0 C 10,0 C 93 % 1017,1 hPa 0,0 l/m 0 min 2 min 0 W/m 0,0 km/h (0 Bft) 97,92 %
22.09.2018 21:18 11,3 C 10,0 C 10,0 C 93 % 1017,1 hPa 0,0 l/m 0 min 2 min 0 W/m 3,2 km/h (1 Bft) 97,87 %
22.09.2018 21:20 11,3 C 10,0 C 10,0 C 93 % 1016,9 hPa 0,0 l/m 0 min 2 min 0 W/m 3,2 km/h (1 Bft) 95,65 %
22.09.2018 21:22 11,3 C 10,0 C 10,0 C 93 % 1016,9 hPa 0,0 l/m 0 min 2 min 0 W/m 3,2 km/h (1 Bft) 95,74 %
22.09.2018 21:24 11,3 C 10,0 C 10,0 C 93 % 1016,9 hPa 0,0 l/m 0 min 2 min 0 W/m 3,2 km/h (1 Bft) 95,74 %
22.09.2018 21:26 11,3 C 10,0 C 10,0 C 93 % 1017,0 hPa 0,0 l/m 0 min 2 min 0 W/m 3,2 km/h (1 Bft) 95,74 %
22.09.2018 21:28 11,3 C 10,0 C 10,0 C 93 % 1016,9 hPa 0,0 l/m 0 min 2 min 0 W/m 3,2 km/h (1 Bft) 95,74 %
22.09.2018 21:30 11,3 C 10,0 C 10,0 C 93 % 1016,8 hPa 0,0 l/m 0 min 2 min 0 W/m 3,2 km/h (1 Bft) 93,62 %
22.09.2018 21:32 11,3 C 10,0 C 10,0 C 93 % 1017,0 hPa 0,0 l/m 0 min 2 min 0 W/m 0,0 km/h (0 Bft) 95,65 %
22.09.2018 21:34 11,3 C 10,0 C 10,0 C 93 % 1017,0 hPa 0,0 l/m 0 min 0 min 0 W/m 3,2 km/h (1 Bft) 95,74 %
22.09.2018 21:36 11,2 C 10,0 C 10,0 C 93 % 1017,0 hPa 0,0 l/m 0 min 0 min 0 W/m 3,2 km/h (1 Bft) 95,74 %
22.09.2018 21:38 11,2 C 10,0 C 10,0 C 93 % 1017,1 hPa 0,0 l/m 0 min 2 min 0 W/m 3,2 km/h (1 Bft) 95,74 %
22.09.2018 21:40 11,2 C 10,0 C 10,0 C 93 % 1017,1 hPa 0,0 l/m 0 min 2 min 0 W/m 0,0 km/h (0 Bft) 97,87 %
22.09.2018 21:42 11,2 C 10,0 C 10,0 C 93 % 1017,1 hPa 0,2 l/m 0 min 2 min 0 W/m 3,2 km/h (1 Bft) 95,65 %
22.09.2018 21:44 11,2 C 10,0 C 10,0 C 93 % 1017,0 hPa 0,0 l/m 0 min 2 min 0 W/m 0,0 km/h (0 Bft) 95,74 %
22.09.2018 21:46 11,2 C 10,0 C 10,0 C 93 % 1016,9 hPa 0,0 l/m 0 min 2 min 0 W/m 3,2 km/h (1 Bft) 93,62 %
22.09.2018 21:48 11,2 C 10,0 C 10,0 C 93 % 1016,9 hPa 0,0 l/m 0 min 2 min 0 W/m 0,0 km/h (0 Bft) 95,74 %
22.09.2018 21:50 11,2 C 10,0 C 10,0 C 93 % 1016,9 hPa 0,0 l/m 0 min 2 min 0 W/m 0,0 km/h (0 Bft) 97,87 %
22.09.2018 21:52 11,2 C 10,0 C 10,0 C 93 % 1016,8 hPa 0,0 l/m 0 min 2 min 0 W/m 3,2 km/h (1 Bft) 95,74 %
22.09.2018 21:54 11,2 C 10,0 C 10,0 C 93 % 1016,8 hPa 0,0 l/m 0 min 2 min 0 W/m 3,2 km/h (1 Bft) 97,83 %
22.09.2018 21:56 11,2 C 10,0 C 10,0 C 93 % 1016,8 hPa 0,0 l/m 0 min 2 min 0 W/m 3,2 km/h (1 Bft) 97,87 %
22.09.2018 21:58 11,2 C 10,0 C 10,0 C 93 % 1016,8 hPa 0,0 l/m 0 min 2 min 0 W/m 0,0 km/h (0 Bft) 95,74 %
22.09.2018 22:00 11,2 C 10,0 C 10,0 C 93 % 1016,8 hPa 0,0 l/m 0 min 2 min 0 W/m 3,2 km/h (1 Bft) 95,74 %
22.09.2018 22:02 11,2 C 10,0 C 10,0 C 93 % 1016,7 hPa 0,0 l/m 0 min 2 min 0 W/m 0,0 km/h (0 Bft) 97,87 %
22.09.2018 22:04 11,2 C 10,0 C 10,0 C 93 % 1016,7 hPa 0,0 l/m 0 min 2 min 0 W/m 0,0 km/h (0 Bft) 93,62 %
22.09.2018 22:08 11,2 C 10,0 C 10,0 C 93 % 1016,8 hPa 0,2 l/m 0 min 4 min 0 W/m 0,0 km/h (0 Bft) 98,78 %
22.09.2018 22:10 11,2 C 10,0 C 10,0 C 93 % 1016,8 hPa 0,0 l/m 0 min 2 min 0 W/m 3,2 km/h (1 Bft) 97,83 %
22.09.2018 22:12 11,2 C 10,0 C 10,0 C 93 % 1016,8 hPa 0,0 l/m 0 min 2 min 0 W/m 0,0 km/h (0 Bft) 95,74 %
22.09.2018 22:14 11,2 C 10,0 C 10,0 C 93 % 1016,8 hPa 0,0 l/m 0 min 2 min 0 W/m 6,4 km/h (2 Bft) 97,87 %
22.09.2018 22:16 11,2 C 10,0 C 10,0 C 93 % 1016,9 hPa 0,0 l/m 0 min 2 min 0 W/m 3,2 km/h (1 Bft) 97,92 %
22.09.2018 22:18 11,2 C 10,0 C 10,0 C 94 % 1017,0 hPa 0,0 l/m 0 min 2 min 0 W/m 0,0 km/h (0 Bft) 97,87 %
22.09.2018 22:20 11,2 C 10,0 C 10,0 C 94 % 1017,0 hPa 0,0 l/m 0 min 2 min 0 W/m 3,2 km/h (1 Bft) 98,28 %
22.09.2018 22:22 11,2 C 10,0 C 10,0 C 94 % 1016,9 hPa 0,0 l/m 0 min 2 min 0 W/m 3,2 km/h (1 Bft) 97,87 %
22.09.2018 22:24 11,2 C 10,0 C 10,0 C 94 % 1016,9 hPa 0,0 l/m 0 min 2 min 0 W/m 3,2 km/h (1 Bft) 97,14 %
22.09.2018 22:26 11,2 C 10,0 C 10,0 C 94 % 1016,9 hPa 0,0 l/m 0 min 2 min 0 W/m 0,0 km/h (0 Bft) 97,87 %
22.09.2018 22:28 11,2 C 10,0 C 10,0 C 94 % 1016,8 hPa 0,0 l/m 0 min 2 min 0 W/m 0,0 km/h (0 Bft) 97,87 %
22.09.2018 22:30 11,2 C 10,0 C 10,0 C 94 % 1016,8 hPa 0,0 l/m 0 min 2 min 0 W/m 0,0 km/h (0 Bft) 97,87 %
22.09.2018 22:32 11,2 C 10,0 C 10,0 C 94 % 1016,7 hPa 0,0 l/m 0 min 2 min 0 W/m 3,2 km/h (1 Bft) 97,83 %
22.09.2018 22:34 11,2 C 10,0 C 10,0 C 94 % 1016,8 hPa 0,0 l/m 0 min 2 min 0 W/m 6,4 km/h (2 Bft) 97,87 %
22.09.2018 22:36 11,2 C 10,0 C 10,0 C 94 % 1016,7 hPa 0,0 l/m 0 min 2 min 0 W/m 3,2 km/h (1 Bft) 95,74 %
22.09.2018 22:38 11,2 C 10,0 C 10,0 C 94 % 1016,7 hPa 0,2 l/m 0 min 2 min 0 W/m 3,2 km/h (1 Bft) 100,00 %
22.09.2018 22:40 11,2 C 10,0 C 10,0 C 94 % 1016,6 hPa 0,0 l/m 0 min 2 min 0 W/m 3,2 km/h (1 Bft) 97,87 %
22.09.2018 22:42 11,2 C 10,0 C 10,0 C 94 % 1016,5 hPa 0,0 l/m 0 min 2 min 0 W/m 0,0 km/h (0 Bft) 100,00 %
22.09.2018 22:44 11,2 C 10,0 C 10,0 C 94 % 1016,5 hPa 0,0 l/m 0 min 2 min 0 W/m 0,0 km/h (0 Bft) 100,00 %
22.09.2018 22:46 11,2 C 10,0 C 10,0 C 94 % 1016,5 hPa 0,0 l/m 0 min 2 min 0 W/m 0,0 km/h (0 Bft) 95,74 %
22.09.2018 22:48 11,1 C 10,0 C 10,0 C 94 % 1016,6 hPa 0,0 l/m 0 min 2 min 0 W/m 0,0 km/h (0 Bft) 95,74 %
22.09.2018 22:50 11,2 C 10,0 C 10,0 C 94 % 1016,6 hPa 0,0 l/m 0 min 0 min 0 W/m 3,2 km/h (1 Bft) 98,31 %
22.09.2018 22:52 11,2 C 10,0 C 10,0 C 94 % 1016,6 hPa 0,0 l/m 0 min 0 min 0 W/m 3,2 km/h (1 Bft) 97,83 %
22.09.2018 22:54 11,2 C 10,0 C 10,0 C 94 % 1016,5 hPa 0,0 l/m 0 min 2 min 0 W/m 0,0 km/h (0 Bft) 97,22 %
22.09.2018 22:56 11,2 C 10,0 C 10,0 C 94 % 1016,5 hPa 0,0 l/m 0 min 2 min 0 W/m 3,2 km/h (1 Bft) 95,65 %
22.09.2018 22:58 11,2 C 10,0 C 10,0 C 94 % 1016,4 hPa 0,0 l/m 0 min 2 min 0 W/m 3,2 km/h (1 Bft) 95,74 %
22.09.2018 23:00 11,2 C 10,0 C 10,0 C 94 % 1016,4 hPa 0,0 l/m 0 min 2 min 0 W/m 0,0 km/h (0 Bft) 97,87 %
22.09.2018 23:02 11,2 C 10,0 C 10,0 C 94 % 1016,4 hPa 0,0 l/m 0 min 2 min 0 W/m 3,2 km/h (1 Bft) 97,92 %
22.09.2018 23:04 11,2 C 10,0 C 10,0 C 95 % 1016,3 hPa 0,0 l/m 0 min 2 min 0 W/m 3,2 km/h (1 Bft) 97,87 %
22.09.2018 23:06 11,2 C 10,0 C 10,0 C 95 % 1016,3 hPa 0,0 l/m 0 min 2 min 0 W/m 3,2 km/h (1 Bft) 97,87 %
22.09.2018 23:08 11,2 C 10,0 C 10,0 C 95 % 1016,3 hPa 0,0 l/m 0 min 2 min 0 W/m 6,4 km/h (2 Bft) 97,83 %
22.09.2018 23:10 11,2 C 10,0 C 10,0 C 95 % 1016,4 hPa 0,2 l/m 0 min 2 min 0 W/m 3,2 km/h (1 Bft) 97,87 %
22.09.2018 23:12 11,2 C 10,0 C 10,0 C 95 % 1016,3 hPa 0,0 l/m 0 min 2 min 0 W/m 3,2 km/h (1 Bft) 97,87 %
22.09.2018 23:14 11,2 C 10,0 C 10,0 C 95 % 1016,4 hPa 0,0 l/m 0 min 2 min 0 W/m 3,2 km/h (1 Bft) 97,87 %
22.09.2018 23:16 11,2 C 10,0 C 10,0 C 95 % 1016,4 hPa 0,0 l/m 0 min 2 min 0 W/m 6,4 km/h (2 Bft) 97,87 %
22.09.2018 23:18 11,2 C 10,0 C 10,0 C 95 % 1016,3 hPa 0,0 l/m 0 min 2 min 0 W/m 3,2 km/h (1 Bft) 97,87 %
22.09.2018 23:20 11,1 C 10,0 C 10,0 C 95 % 1016,4 hPa 0,0 l/m 0 min 2 min 0 W/m 3,2 km/h (1 Bft) 96,15 %
22.09.2018 23:22 11,1 C 10,0 C 10,0 C 95 % 1016,2 hPa 0,0 l/m 0 min 2 min 0 W/m 6,4 km/h (2 Bft) 97,92 %
22.09.2018 23:24 11,1 C 10,0 C 10,0 C 95 % 1016,2 hPa 0,0 l/m 0 min 2 min 0 W/m 6,4 km/h (2 Bft) 97,87 %
22.09.2018 23:26 11,1 C 10,0 C 10,0 C 95 % 1016,2 hPa 0,0 l/m 0 min 2 min 0 W/m 6,4 km/h (2 Bft) 97,83 %
22.09.2018 23:28 11,1 C 10,0 C 10,0 C 95 % 1016,1 hPa 0,0 l/m 0 min 2 min 0 W/m 6,4 km/h (2 Bft) 97,87 %
22.09.2018 23:30 11,1 C 10,0 C 10,0 C 95 % 1016,1 hPa 0,0 l/m 0 min 2 min 0 W/m 3,2 km/h (1 Bft) 97,87 %
22.09.2018 23:32 11,1 C 10,0 C 10,0 C 95 % 1016,4 hPa 0,0 l/m 0 min 2 min 0 W/m 0,0 km/h (0 Bft) 97,87 %
22.09.2018 23:34 11,1 C 10,0 C 10,0 C 95 % 1016,3 hPa 0,0 l/m 0 min 2 min 0 W/m 0,0 km/h (0 Bft) 97,87 %
22.09.2018 23:36 11,1 C 10,0 C 10,0 C 95 % 1016,2 hPa 0,0 l/m 0 min 2 min 0 W/m 0,0 km/h (0 Bft) 97,87 %
22.09.2018 23:38 11,0 C 10,0 C 10,0 C 95 % 1016,1 hPa 0,0 l/m 0 min 2 min 0 W/m 3,2 km/h (1 Bft) 95,65 %
22.09.2018 23:40 11,0 C 10,0 C 10,0 C 95 % 1015,9 hPa 0,0 l/m 0 min 2 min 0 W/m 3,2 km/h (1 Bft) 97,87 %
22.09.2018 23:42 11,0 C 10,0 C 10,0 C 95 % 1016,0 hPa 0,0 l/m 0 min 2 min 0 W/m 3,2 km/h (1 Bft) 97,87 %
22.09.2018 23:44 11,0 C 10,0 C 10,0 C 95 % 1016,0 hPa 0,0 l/m 0 min 2 min 0 W/m 0,0 km/h (0 Bft) 95,74 %
22.09.2018 23:46 11,0 C 10,0 C 10,0 C 95 % 1016,1 hPa 0,0 l/m 0 min 0 min 0 W/m 3,2 km/h (1 Bft) 95,12 %
22.09.2018 23:48 11,0 C 10,0 C 10,0 C 95 % 1016,0 hPa 0,0 l/m 0 min 0 min 0 W/m 6,4 km/h (2 Bft) 100,00 %
22.09.2018 23:50 11,0 C 10,0 C 10,0 C 95 % 1016,0 hPa 0,0 l/m 0 min 2 min 0 W/m 0,0 km/h (0 Bft) 97,87 %
22.09.2018 23:52 10,9 C 10,0 C 10,0 C 95 % 1016,0 hPa 0,0 l/m 0 min 0 min 0 W/m 0,0 km/h (0 Bft) 100,00 %
22.09.2018 23:54 10,9 C 10,0 C 10,0 C 95 % 1016,0 hPa 0,0 l/m 0 min 2 min 0 W/m 0,0 km/h (0 Bft) 100,00 %
22.09.2018 23:56 10,9 C 10,0 C 10,0 C 95 % 1016,0 hPa 0,0 l/m 0 min 2 min 0 W/m 3,2 km/h (1 Bft) 100,00 %
22.09.2018 23:58 10,9 C 10,0 C 10,0 C 95 % 1016,0 hPa 0,0 l/m 0 min 2 min 0 W/m 3,2 km/h (1 Bft) 97,87 %
_ Min-Zeit 23:52 18:12 19:42 11:48 00:00 - - - - 18:14 12:24
Minimum _ 10,9 C 10,0 C 10,0 C 68 % 1013,4 hPa - - - - 0,0 km/h (0 Bft) 89,36 %
_ Max-Zeit 13:44 11:26 13:38 23:04 10:16 14:00 09:08 15:08 11:26 01:54 00:20
Maximum _ 16,9 C 20,6 C 16,1 C 95 % 1018,8 hPa 0,2 l/m 4 min 4 min 520 W/m 32,2 km/h
O (5 Bft)
100,00 %
Durchschnitt _ 13,0 C 12,3 C 12,0 C 82 % 1017,0 hPa #2,0 l/m #1:28 h #8:42 h 147 W/m 9,1 km/h (2 Bft) 97,46 %
© 2018 W. Hausmann